Observation data for Amarillo 7 South Southeast on 11/20/2019      Previous  Date       Current Mesonet Observations  Soil Data  Daily Summary Page  Observations in Plain Language
KAM1 200600Z 21012KT 12/M02 A2979 RMK A01 T01201016  RH  039%=      5-min Rain = 0
KAM1 200601Z 21012KT 12/M02 A2979 RMK A01 T01201017  RH  039%=      5-min Rain = 0
KAM1 200602Z 21011KT 12/M02 A2979 RMK A01 T01201017  RH  039%=      5-min Rain = 0
KAM1 200603Z 21011KT 12/M02 A2979 RMK A01 T01201016  RH  039%=      5-min Rain = 0
KAM1 200604Z 21010KT 12/M02 A2979 RMK A01 T01201017  RH  039%=      5-min Rain = 0
KAM1 200605Z 21012KT 12/M02 A2979 RMK A01 T01201017  RH  039%=      5-min Rain = 0
KAM1 200606Z 21012KT 12/M02 A2979 RMK A01 T01211017  RH  038%=      5-min Rain = 0
KAM1 200607Z 21011KT 12/M02 A2979 RMK A01 T01211016  RH  038%=      5-min Rain = 0
KAM1 200608Z 21011KT 12/M02 A2979 RMK A01 T01211016  RH  038%=      5-min Rain = 0
KAM1 200609Z 21011KT 12/M02 A2979 RMK A01 T01201017  RH  039%=      5-min Rain = 0
KAM1 200610Z 20011KT 12/M02 A2979 RMK A01 T01201016  RH  039%=      5-min Rain = 0
KAM1 200611Z 21010KT 12/M02 A2979 RMK A01 T01201016  RH  039%=      5-min Rain = 0
KAM1 200612Z 20010KT 12/M02 A2979 RMK A01 T01191016  RH  039%=      5-min Rain = 0
KAM1 200613Z 21011KT 12/M02 A2979 RMK A01 T01181017  RH  039%=      5-min Rain = 0
KAM1 200614Z 21011KT 12/M02 A298 RMK A01 T01171017  RH  039%=      5-min Rain = 0
KAM1 200615Z 21011KT 12/M02 A298 RMK A01 T01171017  RH  039%=      5-min Rain = 0
KAM1 200616Z 21011KT 12/M02 A2979 RMK A01 T01181016  RH  039%=      5-min Rain = 0
KAM1 200617Z 21011KT 12/M02 A2979 RMK A01 T01181016  RH  039%=      5-min Rain = 0
KAM1 200618Z 21010G15KT 12/M02 A2979 RMK A01 T01181016  RH  039%=      5-min Rain = 0
KAM1 200619Z 21011KT 12/M02 A2979 RMK A01 T01181016  RH  039%=      5-min Rain = 0
KAM1 200620Z 21011KT 12/M02 A2979 RMK A01 T01181016  RH  039%=      5-min Rain = 0
KAM1 200621Z 21011KT 12/M02 A2979 RMK A01 T01181016  RH  039%=      5-min Rain = 0
KAM1 200622Z 21012KT 12/M02 A2979 RMK A01 T01181016  RH  039%=      5-min Rain = 0
KAM1 200623Z 21012KT 12/M02 A2979 RMK A01 T01181016  RH  039%=      5-min Rain = 0
KAM1 200624Z 21011KT 12/M02 A2979 RMK A01 T01191016  RH  039%=      5-min Rain = 0
KAM1 200625Z 21012KT 12/M02 A2979 RMK A01 T01181016  RH  039%=      5-min Rain = 0
KAM1 200626Z 21012KT 12/M02 A2979 RMK A01 T01191016  RH  039%=      5-min Rain = 0
KAM1 200627Z 21012KT 12/M02 A2979 RMK A01 T01191016  RH  039%=      5-min Rain = 0
KAM1 200628Z 21012KT 12/M02 A2979 RMK A01 T01191016  RH  039%=      5-min Rain = 0
KAM1 200629Z 21012KT 12/M02 A2979 RMK A01 T01201015  RH  039%=      5-min Rain = 0
KAM1 200630Z 21013KT 12/M02 A2979 RMK A01 T01201015  RH  039%=      5-min Rain = 0
KAM1 200631Z 21013KT 12/M02 A2979 RMK A01 T01201015  RH  039%=      5-min Rain = 0
KAM1 200632Z 21011KT 12/M02 A2979 RMK A01 T01211015  RH  039%=      5-min Rain = 0
KAM1 200633Z 21012KT 12/M02 A2978 RMK A01 T01211015  RH  039%=      5-min Rain = 0
KAM1 200634Z 21012KT 12/M02 A2978 RMK A01 T01211015  RH  039%=      5-min Rain = 0
KAM1 200635Z 21011KT 12/M02 A2979 RMK A01 T01221015  RH  039%=      5-min Rain = 0
KAM1 200636Z 21013KT 12/M02 A2979 RMK A01 T01221015  RH  039%=      5-min Rain = 0
KAM1 200637Z 21012KT 12/M02 A2979 RMK A01 T01221015  RH  039%=      5-min Rain = 0
KAM1 200638Z 21011KT 12/M02 A2979 RMK A01 T01221015  RH  038%=      5-min Rain = 0
KAM1 200639Z 21012KT 12/M02 A2979 RMK A01 T01231015  RH  038%=      5-min Rain = 0
KAM1 200640Z 20011KT 12/M02 A2979 RMK A01 T01221015  RH  038%=      5-min Rain = 0
KAM1 200641Z 20013KT 12/M02 A2979 RMK A01 T01221015  RH  039%=      5-min Rain = 0
KAM1 200642Z 20015KT 12/M02 A2979 RMK A01 T01221015  RH  039%=      5-min Rain = 0
KAM1 200643Z 20013KT 12/M02 A2979 RMK A01 T01221015  RH  039%=      5-min Rain = 0
KAM1 200644Z 20013KT 12/M02 A2979 RMK A01 T01211015  RH  039%=      5-min Rain = 0
KAM1 200645Z 20013KT 12/M02 A2979 RMK A01 T01211015  RH  039%=      5-min Rain = 0
KAM1 200646Z 20012KT 12/M02 A2979 RMK A01 T01201015  RH  039%=      5-min Rain = 0
KAM1 200647Z 21013KT 12/M02 A2979 RMK A01 T01191015  RH  039%=      5-min Rain = 0
KAM1 200648Z 21012KT 12/M02 A2979 RMK A01 T01181015  RH  040%=      5-min Rain = 0
KAM1 200649Z 21013KT 12/M02 A2979 RMK A01 T01181015  RH  040%=      5-min Rain = 0
KAM1 200650Z 21010KT 12/M01 A2979 RMK A01 T01181014  RH  040%=      5-min Rain = 0
KAM1 200651Z 21011KT 12/M02 A2979 RMK A01 T01171015  RH  040%=      5-min Rain = 0
KAM1 200652Z 21012KT 12/M01 A2979 RMK A01 T01161014  RH  040%=      5-min Rain = 0
KAM1 200653Z 21011KT 12/M01 A2979 RMK A01 T01151014  RH  041%=      5-min Rain = 0
KAM1 200654Z 21010KT 12/M01 A2979 RMK A01 T01151014  RH  041%=      5-min Rain = 0
KAM1 200655Z 21010KT 11/M01 A2979 RMK A01 T01141014  RH  041%=      5-min Rain = 0
KAM1 200656Z 21009KT 11/M01 A2979 RMK A01 T01141014  RH  041%=      5-min Rain = 0
KAM1 200657Z 21010KT 11/M01 A2979 RMK A01 T01141014  RH  041%=      5-min Rain = 0
KAM1 200658Z 21008KT 11/M01 A2979 RMK A01 T01131013  RH  041%=      5-min Rain = 0
KAM1 200659Z 21008KT 11/M01 A2979 RMK A01 T01131013  RH  041%=      5-min Rain = 0
KAM1 200700Z 21009KT 11/M01 A2978 RMK A01 T01131013  RH  042%=      5-min Rain = 0
KAM1 200701Z 22008KT 11/M01 A2978 RMK A01 T01121013  RH  042%=      5-min Rain = 0
KAM1 200702Z 21008KT 11/M01 A2978 RMK A01 T01131013  RH  042%=      5-min Rain = 0
KAM1 200703Z 21009KT 11/M01 A2978 RMK A01 T01121013  RH  042%=      5-min Rain = 0
KAM1 200704Z 21007KT 11/M01 A2978 RMK A01 T01121012  RH  042%=      5-min Rain = 0
KAM1 200705Z 21008KT 11/M01 A2978 RMK A01 T01121012  RH  042%=      5-min Rain = 0
KAM1 200706Z 21008KT 11/M01 A2978 RMK A01 T01121012  RH  042%=      5-min Rain = 0
KAM1 200707Z 21008KT 11/M01 A2978 RMK A01 T01121012  RH  042%=      5-min Rain = 0
KAM1 200708Z 21008KT 11/M01 A2978 RMK A01 T01121011  RH  042%=      5-min Rain = 0
KAM1 200709Z 20008KT 11/M01 A2978 RMK A01 T01121011  RH  042%=      5-min Rain = 0
KAM1 200710Z 21008KT 11/M01 A2978 RMK A01 T01121011  RH  042%=      5-min Rain = 0
KAM1 200711Z 21009KT 11/M01 A2978 RMK A01 T01121011  RH  042%=      5-min Rain = 0
KAM1 200712Z 20009KT 11/M01 A2978 RMK A01 T01121011  RH  043%=      5-min Rain = 0
KAM1 200713Z 20008KT 11/M01 A2978 RMK A01 T01121011  RH  043%=      5-min Rain = 0
KAM1 200714Z 21009KT 11/M01 A2977 RMK A01 T01121010  RH  042%=      5-min Rain = 0
KAM1 200715Z 21007KT 11/M01 A2977 RMK A01 T01131010  RH  042%=      5-min Rain = 0
KAM1 200716Z 20007KT 11/M01 A2977 RMK A01 T01131010  RH  043%=      5-min Rain = 0
KAM1 200717Z 20008KT 11/M01 A2977 RMK A01 T01131010  RH  043%=      5-min Rain = 0
KAM1 200718Z 20009KT 11/M01 A2977 RMK A01 T01131010  RH  043%=      5-min Rain = 0
KAM1 200719Z 20008KT 11/M01 A2978 RMK A01 T01131009  RH  043%=      5-min Rain = 0
KAM1 200720Z 20007KT 11/M01 A2978 RMK A01 T01131009  RH  042%=      5-min Rain = 0
KAM1 200721Z 20008KT 11/M01 A2978 RMK A01 T01141009  RH  043%=      5-min Rain = 0
KAM1 200722Z 20008KT 11/M01 A2977 RMK A01 T01131009  RH  043%=      5-min Rain = 0
KAM1 200723Z 20008KT 11/M01 A2977 RMK A01 T01131009  RH  043%=      5-min Rain = 0
KAM1 200724Z 19008KT 11/M01 A2977 RMK A01 T01131009  RH  043%=      5-min Rain = 0
KAM1 200725Z 20008KT 11/M01 A2978 RMK A01 T01131009  RH  043%=      5-min Rain = 0
KAM1 200726Z 19009KT 11/M01 A2978 RMK A01 T01141009  RH  043%=      5-min Rain = 0
KAM1 200727Z 20009KT 11/M01 A2978 RMK A01 T01141008  RH  043%=      5-min Rain = 0
KAM1 200728Z 20011KT 11/M01 A2978 RMK A01 T01141008  RH  043%=      5-min Rain = 0
KAM1 200729Z 20010KT 11/M01 A2978 RMK A01 T01141008  RH  043%=      5-min Rain = 0
KAM1 200730Z 20010KT 12/M01 A2978 RMK A01 T01151008  RH  043%=      5-min Rain = 0
KAM1 200731Z 20011KT 12/M01 A2978 RMK A01 T01151008  RH  043%=      5-min Rain = 0
KAM1 200732Z 20011KT 12/M01 A2978 RMK A01 T01161008  RH  042%=      5-min Rain = 0
KAM1 200733Z 20013KT 12/M01 A2977 RMK A01 T01171007  RH  042%=      5-min Rain = 0
KAM1 200734Z 20012KT 12/M01 A2977 RMK A01 T01171007  RH  042%=      5-min Rain = 0
KAM1 200735Z 20011KT 12/M01 A2977 RMK A01 T01181007  RH  042%=      5-min Rain = 0
KAM1 200736Z 19010KT 12/M01 A2977 RMK A01 T01181007  RH  042%=      5-min Rain = 0
KAM1 200737Z 20010KT 12/M01 A2977 RMK A01 T01181007  RH  042%=      5-min Rain = 0
KAM1 200738Z 20010KT 12/M01 A2977 RMK A01 T01171007  RH  042%=      5-min Rain = 0
KAM1 200739Z 20011KT 12/M01 A2977 RMK A01 T01171007  RH  042%=      5-min Rain = 0
KAM1 200740Z 20011KT 12/M01 A2977 RMK A01 T01171007  RH  042%=      5-min Rain = 0
KAM1 200741Z 20011KT 12/M01 A2977 RMK A01 T01171007  RH  042%=      5-min Rain = 0
KAM1 200742Z 20011KT 12/M01 A2977 RMK A01 T01171007  RH  042%=      5-min Rain = 0
KAM1 200743Z 20011KT 12/M01 A2977 RMK A01 T01181006  RH  042%=      5-min Rain = 0
KAM1 200744Z 20012KT 12/M01 A2977 RMK A01 T01181006  RH  042%=      5-min Rain = 0
KAM1 200745Z 20012KT 12/M01 A2977 RMK A01 T01191006  RH  042%=      5-min Rain = 0
KAM1 200746Z 21011KT 12/M01 A2977 RMK A01 T01201006  RH  042%=      5-min Rain = 0
KAM1 200747Z 20010KT 12/M01 A2977 RMK A01 T01201006  RH  042%=      5-min Rain = 0
KAM1 200748Z 20012KT 12/M01 A2977 RMK A01 T01201006  RH  042%=      5-min Rain = 0
KAM1 200749Z 20011KT 12/M01 A2977 RMK A01 T01211005  RH  042%=      5-min Rain = 0
KAM1 200750Z 21013KT 12/M01 A2977 RMK A01 T01221005  RH  042%=      5-min Rain = 0
KAM1 200751Z 21013KT 12/M01 A2977 RMK A01 T01221005  RH  041%=      5-min Rain = 0
KAM1 200752Z 21013KT 12/M01 A2977 RMK A01 T01231005  RH  041%=      5-min Rain = 0
KAM1 200753Z 21013KT 12/M01 A2977 RMK A01 T01241005  RH  041%=      5-min Rain = 0
KAM1 200754Z 20013KT 12/M01 A2977 RMK A01 T01241005  RH  041%=      5-min Rain = 0
KAM1 200755Z 20014KT 13/M01 A2977 RMK A01 T01251005  RH  041%=      5-min Rain = 0
KAM1 200756Z 21012KT 13/M01 A2977 RMK A01 T01251005  RH  041%=      5-min Rain = 0
KAM1 200757Z 21014KT 13/M01 A2977 RMK A01 T01251005  RH  041%=      5-min Rain = 0
KAM1 200758Z 21014KT 13/M01 A2977 RMK A01 T01251005  RH  041%=      5-min Rain = 0
KAM1 200759Z 21012KT 13/M01 A2977 RMK A01 T01251005  RH  041%=      5-min Rain = 0
KAM1 200800Z 21013KT 13/M01 A2977 RMK A01 T01251005  RH  041%=      5-min Rain = 0
KAM1 200801Z 21012KT 12/M01 A2977 RMK A01 T01241005  RH  041%=      5-min Rain = 0
KAM1 200802Z 21012KT 12/M01 A2977 RMK A01 T01231005  RH  041%=      5-min Rain = 0
KAM1 200803Z 20013G19KT 12/M01 A2977 RMK A01 T01221005  RH  041%=      5-min Rain = 0
KAM1 200804Z 21012KT 12/M00 A2977 RMK A01 T01221004  RH  042%=      5-min Rain = 0
KAM1 200805Z 21012KT 12/M00 A2976 RMK A01 T01221004  RH  042%=      5-min Rain = 0
KAM1 200806Z 21012KT 12/M00 A2976 RMK A01 T01221004  RH  042%=      5-min Rain = 0
KAM1 200807Z 21013KT 12/M00 A2976 RMK A01 T01221004  RH  042%=      5-min Rain = 0
KAM1 200808Z 21013KT 12/M00 A2976 RMK A01 T01231004  RH  042%=      5-min Rain = 0
KAM1 200809Z 21013KT 12/M00 A2976 RMK A01 T01231004  RH  042%=      5-min Rain = 0
KAM1 200810Z 21012KT 12/M00 A2976 RMK A01 T01231004  RH  042%=      5-min Rain = 0
KAM1 200811Z 21012KT 12/M00 A2976 RMK A01 T01231004  RH  042%=      5-min Rain = 0
KAM1 200812Z 21013KT 12/M00 A2976 RMK A01 T01221004  RH  042%=      5-min Rain = 0
KAM1 200813Z 21013KT 12/M00 A2976 RMK A01 T01231004  RH  042%=      5-min Rain = 0
KAM1 200814Z 21013KT 12/M00 A2976 RMK A01 T01221004  RH  042%=      5-min Rain = 0
KAM1 200815Z 21012KT 12/M00 A2976 RMK A01 T01231003  RH  042%=      5-min Rain = 0
KAM1 200816Z 21013KT 12/M00 A2976 RMK A01 T01231003  RH  042%=      5-min Rain = 0
KAM1 200817Z 21012KT 12/M00 A2976 RMK A01 T01231003  RH  042%=      5-min Rain = 0
KAM1 200818Z 21012KT 12/M00 A2976 RMK A01 T01231003  RH  042%=      5-min Rain = 0
KAM1 200819Z 21012KT 12/M00 A2976 RMK A01 T01221003  RH  042%=      5-min Rain = 0
KAM1 200820Z 21010KT 12/M00 A2976 RMK A01 T01221003  RH  042%=      5-min Rain = 0
KAM1 200821Z 21011KT 12/M00 A2976 RMK A01 T01211002  RH  043%=      5-min Rain = 0
KAM1 200822Z 21012KT 12/M00 A2976 RMK A01 T01211003  RH  043%=      5-min Rain = 0
KAM1 200823Z 21010KT 12/M00 A2976 RMK A01 T01211003  RH  043%=      5-min Rain = 0
KAM1 200824Z 21010KT 12/M00 A2976 RMK A01 T01211002  RH  043%=      5-min Rain = 0
KAM1 200825Z 21010KT 12/M00 A2976 RMK A01 T01201002  RH  043%=      5-min Rain = 0
KAM1 200826Z 21011KT 12/M00 A2976 RMK A01 T01201002  RH  043%=      5-min Rain = 0
KAM1 200827Z 21011KT 12/M00 A2976 RMK A01 T01191002  RH  043%=      5-min Rain = 0
KAM1 200828Z 21011KT 12/M00 A2976 RMK A01 T01191002  RH  043%=      5-min Rain = 0
KAM1 200829Z 21011KT 12/M00 A2976 RMK A01 T01191002  RH  043%=      5-min Rain = 0
KAM1 200830Z 22011KT 12/M00 A2976 RMK A01 T01191002  RH  043%=      5-min Rain = 0
KAM1 200831Z 21010KT 12/M00 A2976 RMK A01 T01201002  RH  043%=      5-min Rain = 0
KAM1 200832Z 21011KT 12/M00 A2976 RMK A01 T01201002  RH  043%=      5-min Rain = 0
KAM1 200833Z 21010KT 12/M00 A2976 RMK A01 T01201002  RH  043%=      5-min Rain = 0
KAM1 200834Z 21010KT 12/M00 A2976 RMK A01 T01201001  RH  043%=      5-min Rain = 0
KAM1 200835Z 21010KT 12/M00 A2976 RMK A01 T01201001  RH  043%=      5-min Rain = 0
KAM1 200836Z 21009KT 12/M00 A2976 RMK A01 T01201002  RH  043%=      5-min Rain = 0
KAM1 200837Z 22008KT 12/M00 A2976 RMK A01 T01201002  RH  043%=      5-min Rain = 0
KAM1 200838Z 21008KT 12/M00 A2976 RMK A01 T01201001  RH  043%=      5-min Rain = 0
KAM1 200839Z 21009KT 12/M00 A2976 RMK A01 T01201001  RH  043%=      5-min Rain = 0
KAM1 200840Z 22010KT 12/M00 A2976 RMK A01 T01201001  RH  043%=      5-min Rain = 0
KAM1 200841Z 21009KT 12/M00 A2976 RMK A01 T01201001  RH  043%=      5-min Rain = 0
KAM1 200842Z 21008KT 12/M00 A2976 RMK A01 T01201002  RH  043%=      5-min Rain = 0
KAM1 200843Z 21009KT 12/M00 A2976 RMK A01 T01211001  RH  043%=      5-min Rain = 0
KAM1 200844Z 21009KT 12/M00 A2976 RMK A01 T01211001  RH  043%=      5-min Rain = 0
KAM1 200845Z 21008KT 12/M00 A2976 RMK A01 T01211001  RH  043%=      5-min Rain = 0
KAM1 200846Z 22008KT 12/M00 A2976 RMK A01 T01201001  RH  043%=      5-min Rain = 0
KAM1 200847Z 22009KT 12/M00 A2977 RMK A01 T01201001  RH  043%=      5-min Rain = 0
KAM1 200848Z 22009KT 12/M00 A2977 RMK A01 T01191001  RH  044%=      5-min Rain = 0
KAM1 200849Z 21010KT 12/00 A2977 RMK A01 T012000-0  RH  044%=      5-min Rain = 0
KAM1 200850Z 21009KT 12/M00 A2977 RMK A01 T01191001  RH  044%=      5-min Rain = 0
KAM1 200851Z 21008KT 12/M00 A2977 RMK A01 T01191001  RH  044%=      5-min Rain = 0
KAM1 200852Z 21009KT 12/M00 A2977 RMK A01 T01191001  RH  044%=      5-min Rain = 0
KAM1 200853Z 21010KT 12/M00 A2977 RMK A01 T01191001  RH  044%=      5-min Rain = 0
KAM1 200854Z 20009KT 12/00 A2977 RMK A01 T012000-0  RH  044%=      5-min Rain = 0
KAM1 200855Z 20010KT 12/00 A2977 RMK A01 T012000-0  RH  044%=      5-min Rain = 0
KAM1 200856Z 21010KT 12/00 A2977 RMK A01 T012000-0  RH  043%=      5-min Rain = 0
KAM1 200857Z 21009KT 12/00 A2976 RMK A01 T01210000  RH  043%=      5-min Rain = 0
KAM1 200858Z 21009KT 12/00 A2976 RMK A01 T01210000  RH  043%=      5-min Rain = 0
KAM1 200859Z 21009KT 12/00 A2976 RMK A01 T012100-0  RH  043%=      5-min Rain = 0
KAM1 200900Z 21008KT 12/00 A2976 RMK A01 T01210000  RH  043%=      5-min Rain = 0
KAM1 200901Z 21009KT 12/00 A2976 RMK A01 T01220000  RH  043%=      5-min Rain = 0
KAM1 200902Z 21011KT 12/00 A2977 RMK A01 T01220000  RH  043%=      5-min Rain = 0
KAM1 200903Z 21011KT 12/00 A2977 RMK A01 T01220000  RH  043%=      5-min Rain = 0
KAM1 200904Z 21012KT 12/00 A2977 RMK A01 T01220001  RH  043%=      5-min Rain = 0
KAM1 200905Z 21011KT 12/00 A2977 RMK A01 T01220001  RH  043%=      5-min Rain = 0
KAM1 200906Z 21011KT 12/00 A2977 RMK A01 T01220001  RH  043%=      5-min Rain = 0
KAM1 200907Z 21009KT 12/00 A2976 RMK A01 T01220001  RH  043%=      5-min Rain = 0
KAM1 200908Z 21010KT 12/00 A2976 RMK A01 T01220001  RH  043%=      5-min Rain = 0
KAM1 200909Z 20011KT 12/00 A2977 RMK A01 T01220001  RH  043%=      5-min Rain = 0
KAM1 200910Z 21010KT 12/00 A2976 RMK A01 T01220001  RH  043%=      5-min Rain = 0
KAM1 200911Z 21011KT 12/00 A2976 RMK A01 T01230001  RH  043%=      5-min Rain = 0
KAM1 200912Z 21011KT 12/00 A2976 RMK A01 T01230001  RH  043%=      5-min Rain = 0
KAM1 200913Z 21010KT 12/00 A2976 RMK A01 T01220001  RH  043%=      5-min Rain = 0
KAM1 200914Z 21011KT 12/00 A2976 RMK A01 T01220002  RH  044%=      5-min Rain = 0
KAM1 200915Z 21011KT 12/00 A2976 RMK A01 T01220001  RH  043%=      5-min Rain = 0
KAM1 200916Z 21010KT 12/00 A2976 RMK A01 T01230002  RH  043%=      5-min Rain = 0
KAM1 200917Z 21010KT 12/00 A2976 RMK A01 T01230002  RH  044%=      5-min Rain = 0
KAM1 200918Z 21012KT 12/00 A2976 RMK A01 T01220002  RH  044%=      5-min Rain = 0
KAM1 200919Z 20011KT 12/00 A2976 RMK A01 T01220002  RH  044%=      5-min Rain = 0
KAM1 200920Z 21010KT 12/00 A2976 RMK A01 T01220002  RH  044%=      5-min Rain = 0
KAM1 200921Z 21011KT 12/00 A2976 RMK A01 T01220002  RH  044%=      5-min Rain = 0
KAM1 200922Z 21010KT 12/00 A2976 RMK A01 T01220003  RH  044%=      5-min Rain = 0
KAM1 200923Z 21009KT 12/00 A2976 RMK A01 T01220003  RH  044%=      5-min Rain = 0
KAM1 200924Z 21010KT 12/00 A2976 RMK A01 T01220003  RH  044%=      5-min Rain = 0
KAM1 200925Z 21008KT 12/00 A2976 RMK A01 T01220003  RH  044%=      5-min Rain = 0
KAM1 200926Z 21008KT 12/00 A2976 RMK A01 T01220003  RH  044%=      5-min Rain = 0
KAM1 200927Z 21009KT 12/00 A2976 RMK A01 T01220003  RH  044%=      5-min Rain = 0
KAM1 200928Z 22008KT 12/00 A2975 RMK A01 T01220003  RH  044%=      5-min Rain = 0
KAM1 200929Z 22007KT 12/00 A2975 RMK A01 T01220003  RH  044%=      5-min Rain = 0
KAM1 200930Z 22007KT 12/00 A2975 RMK A01 T01220003  RH  044%=      5-min Rain = 0
KAM1 200931Z 21008KT 12/00 A2975 RMK A01 T01220003  RH  044%=      5-min Rain = 0
KAM1 200932Z 21007KT 12/00 A2975 RMK A01 T01220003  RH  044%=      5-min Rain = 0
KAM1 200933Z 21009KT 12/00 A2975 RMK A01 T01210003  RH  044%=      5-min Rain = 0
KAM1 200934Z 21008KT 12/00 A2975 RMK A01 T01210003  RH  044%=      5-min Rain = 0
KAM1 200935Z 21008KT 12/00 A2975 RMK A01 T01210003  RH  044%=      5-min Rain = 0
KAM1 200936Z 21008KT 12/00 A2975 RMK A01 T01210003  RH  044%=      5-min Rain = 0
KAM1 200937Z 21008KT 12/00 A2975 RMK A01 T01210003  RH  044%=      5-min Rain = 0
KAM1 200938Z 21008KT 12/00 A2975 RMK A01 T01200003  RH  045%=      5-min Rain = 0
KAM1 200939Z 21007KT 12/00 A2975 RMK A01 T01200003  RH  045%=      5-min Rain = 0
KAM1 200940Z 21007KT 12/00 A2975 RMK A01 T01190003  RH  045%=      5-min Rain = 0
KAM1 200941Z 21007KT 12/00 A2975 RMK A01 T01180003  RH  045%=      5-min Rain = 0
KAM1 200942Z 21008KT 12/00 A2975 RMK A01 T01180003  RH  045%=      5-min Rain = 0
KAM1 200943Z 21008KT 12/00 A2975 RMK A01 T01170003  RH  045%=      5-min Rain = 0
KAM1 200944Z 21009KT 12/00 A2975 RMK A01 T01170003  RH  046%=      5-min Rain = 0
KAM1 200945Z 22009KT 12/00 A2975 RMK A01 T01170003  RH  046%=      5-min Rain = 0
KAM1 200946Z 21010KT 12/00 A2975 RMK A01 T01170003  RH  046%=      5-min Rain = 0
KAM1 200947Z 21010KT 12/00 A2975 RMK A01 T01170003  RH  046%=      5-min Rain = 0
KAM1 200948Z 21010KT 12/00 A2975 RMK A01 T01170004  RH  046%=      5-min Rain = 0
KAM1 200949Z 21010KT 12/00 A2975 RMK A01 T01170004  RH  046%=      5-min Rain = 0
KAM1 200950Z 21010KT 12/00 A2975 RMK A01 T01170004  RH  046%=      5-min Rain = 0
KAM1 200951Z 21010KT 12/00 A2975 RMK A01 T01170003  RH  046%=      5-min Rain = 0
KAM1 200952Z 20009KT 12/00 A2975 RMK A01 T01170004  RH  046%=      5-min Rain = 0
KAM1 200953Z 20011KT 12/00 A2975 RMK A01 T01170004  RH  046%=      5-min Rain = 0
KAM1 200954Z 20012KT 12/00 A2975 RMK A01 T01180004  RH  046%=      5-min Rain = 0
KAM1 200955Z 20012KT 12/00 A2975 RMK A01 T01180004  RH  045%=      5-min Rain = 0
KAM1 200956Z 21011KT 12/00 A2975 RMK A01 T01180004  RH  045%=      5-min Rain = 0
KAM1 200957Z 21010KT 12/00 A2975 RMK A01 T01190004  RH  045%=      5-min Rain = 0
KAM1 200958Z 21009KT 12/00 A2975 RMK A01 T01190004  RH  045%=      5-min Rain = 0
KAM1 200959Z 21011KT 12/00 A2975 RMK A01 T01190004  RH  045%=      5-min Rain = 0
KAM1 201000Z 21012KT 12/01 A2975 RMK A01 T01200005  RH  045%=      5-min Rain = 0
KAM1 201001Z 21012KT 12/01 A2975 RMK A01 T01200005  RH  045%=      5-min Rain = 0
KAM1 201002Z 21012KT 12/01 A2976 RMK A01 T01210005  RH  045%=      5-min Rain = 0
KAM1 201003Z 21015KT 12/01 A2976 RMK A01 T01210005  RH  045%=      5-min Rain = 0
KAM1 201004Z 21016KT 12/01 A2976 RMK A01 T01220005  RH  045%=      5-min Rain = 0
KAM1 201005Z 21015KT 12/01 A2976 RMK A01 T01230005  RH  044%=      5-min Rain = 0
KAM1 201006Z 21015KT 12/01 A2976 RMK A01 T01230005  RH  044%=      5-min Rain = 0
KAM1 201007Z 21016KT 12/01 A2976 RMK A01 T01240005  RH  044%=      5-min Rain = 0
KAM1 201008Z 21016KT 13/01 A2976 RMK A01 T01250005  RH  044%=      5-min Rain = 0
KAM1 201009Z 21015KT 13/01 A2976 RMK A01 T01250005  RH  044%=      5-min Rain = 0
KAM1 201010Z 21013KT 13/01 A2976 RMK A01 T01260005  RH  044%=      5-min Rain = 0
KAM1 201011Z 21013KT 13/01 A2976 RMK A01 T01260006  RH  044%=      5-min Rain = 0
KAM1 201012Z 21013KT 13/01 A2976 RMK A01 T01270006  RH  044%=      5-min Rain = 0
KAM1 201013Z 21012KT 13/01 A2976 RMK A01 T01270006  RH  043%=      5-min Rain = 0
KAM1 201014Z 21016KT 13/01 A2976 RMK A01 T01270006  RH  044%=      5-min Rain = 0
KAM1 201015Z 21012KT 13/01 A2976 RMK A01 T01270006  RH  043%=      5-min Rain = 0
KAM1 201016Z 21012KT 13/01 A2976 RMK A01 T01280007  RH  043%=      5-min Rain = 0
KAM1 201017Z 21014KT 13/01 A2976 RMK A01 T01280007  RH  043%=      5-min Rain = 0
KAM1 201018Z 21012KT 13/01 A2976 RMK A01 T01280007  RH  044%=      5-min Rain = 0
KAM1 201019Z 21013KT 13/01 A2976 RMK A01 T01280007  RH  044%=      5-min Rain = 0
KAM1 201020Z 21013KT 13/01 A2977 RMK A01 T01280007  RH  044%=      5-min Rain = 0
KAM1 201021Z 21011KT 13/01 A2976 RMK A01 T01280007  RH  044%=      5-min Rain = 0
KAM1 201022Z 21011KT 13/01 A2976 RMK A01 T01270007  RH  044%=      5-min Rain = 0
KAM1 201023Z 21010KT 13/01 A2976 RMK A01 T01270007  RH  044%=      5-min Rain = 0
KAM1 201024Z 21011KT 13/01 A2976 RMK A01 T01260007  RH  044%=      5-min Rain = 0
KAM1 201025Z 21010KT 13/01 A2976 RMK A01 T01260007  RH  044%=      5-min Rain = 0
KAM1 201026Z 21010KT 13/01 A2976 RMK A01 T01250007  RH  044%=      5-min Rain = 0
KAM1 201027Z 21009KT 13/01 A2976 RMK A01 T01250007  RH  045%=      5-min Rain = 0
KAM1 201028Z 21009KT 13/01 A2976 RMK A01 T01250008  RH  045%=      5-min Rain = 0
KAM1 201029Z 21009KT 13/01 A2976 RMK A01 T01250008  RH  045%=      5-min Rain = 0
KAM1 201030Z 21010KT 12/01 A2976 RMK A01 T01240008  RH  045%=      5-min Rain = 0
KAM1 201031Z 21008KT 12/01 A2976 RMK A01 T01240008  RH  045%=      5-min Rain = 0
KAM1 201032Z 21009KT 12/01 A2976 RMK A01 T01240008  RH  045%=      5-min Rain = 0
KAM1 201033Z 21010KT 12/01 A2976 RMK A01 T01240008  RH  045%=      5-min Rain = 0
KAM1 201034Z 21010KT 13/01 A2976 RMK A01 T01250008  RH  045%=      5-min Rain = 0
KAM1 201035Z 21012KT 13/01 A2976 RMK A01 T01250009  RH  045%=      5-min Rain = 0
KAM1 201036Z 21011KT 13/01 A2976 RMK A01 T01270009  RH  045%=      5-min Rain = 0
KAM1 201037Z 21011KT 13/01 A2976 RMK A01 T01280009  RH  044%=      5-min Rain = 0
KAM1 201038Z 21011KT 13/01 A2976 RMK A01 T01290009  RH  044%=      5-min Rain = 0
KAM1 201039Z 21010KT 13/01 A2976 RMK A01 T01300010  RH  044%=      5-min Rain = 0
KAM1 201040Z 20010KT 13/01 A2976 RMK A01 T01310010  RH  044%=      5-min Rain = 0
KAM1 201041Z 20010KT 13/01 A2976 RMK A01 T01320010  RH  044%=      5-min Rain = 0
KAM1 201042Z 20011KT 13/01 A2976 RMK A01 T01330011  RH  043%=      5-min Rain = 0
KAM1 201043Z 20012KT 13/01 A2976 RMK A01 T01340011  RH  043%=      5-min Rain = 0
KAM1 201044Z 20011KT 14/01 A2976 RMK A01 T01350011  RH  043%=      5-min Rain = 0
KAM1 201045Z 20011KT 14/01 A2976 RMK A01 T01370012  RH  043%=      5-min Rain = 0
KAM1 201046Z 20012KT 14/01 A2976 RMK A01 T01380012  RH  042%=      5-min Rain = 0
KAM1 201047Z 20014KT 14/01 A2976 RMK A01 T01390013  RH  042%=      5-min Rain = 0
KAM1 201048Z 20012KT 14/01 A2976 RMK A01 T01410013  RH  042%=      5-min Rain = 0
KAM1 201049Z 21013KT 14/01 A2976 RMK A01 T01420013  RH  042%=      5-min Rain = 0
KAM1 201050Z 21009KT 14/01 A2976 RMK A01 T01420013  RH  041%=      5-min Rain = 0
KAM1 201051Z 21011KT 14/01 A2976 RMK A01 T01430013  RH  041%=      5-min Rain = 0
KAM1 201052Z 20011KT 14/01 A2976 RMK A01 T01430014  RH  041%=      5-min Rain = 0
KAM1 201053Z 20011KT 14/01 A2976 RMK A01 T01430013  RH  041%=      5-min Rain = 0
KAM1 201054Z 20009KT 14/01 A2976 RMK A01 T01430014  RH  041%=      5-min Rain = 0
KAM1 201055Z 20011KT 14/01 A2976 RMK A01 T01430014  RH  042%=      5-min Rain = 0
KAM1 201056Z 20011KT 14/01 A2976 RMK A01 T01430014  RH  042%=      5-min Rain = 0
KAM1 201057Z 20009KT 14/01 A2976 RMK A01 T01430014  RH  042%=      5-min Rain = 0
KAM1 201058Z 20010KT 14/02 A2976 RMK A01 T01420015  RH  042%=      5-min Rain = 0
KAM1 201059Z 20010KT 14/02 A2976 RMK A01 T01420015  RH  042%=      5-min Rain = 0
KAM1 201100Z 20011KT 14/02 A2976 RMK A01 T01410015  RH  042%=      5-min Rain = 0
KAM1 201101Z 20009KT 14/02 A2976 RMK A01 T01410015  RH  042%=      5-min Rain = 0
KAM1 201102Z 20010KT 14/02 A2976 RMK A01 T01410015  RH  042%=      5-min Rain = 0
KAM1 201103Z 21009KT 14/02 A2976 RMK A01 T01410015  RH  042%=      5-min Rain = 0
KAM1 201104Z 21009KT 14/02 A2976 RMK A01 T01410015  RH  042%=      5-min Rain = 0
KAM1 201105Z 21009KT 14/02 A2975 RMK A01 T01400015  RH  043%=      5-min Rain = 0
KAM1 201106Z 21010KT 14/02 A2975 RMK A01 T01390015  RH  043%=      5-min Rain = 0
KAM1 201107Z 21010KT 14/02 A2975 RMK A01 T01390015  RH  043%=      5-min Rain = 0
KAM1 201108Z 21009KT 14/02 A2976 RMK A01 T01390015  RH  043%=      5-min Rain = 0
KAM1 201109Z 21009KT 14/02 A2976 RMK A01 T01390016  RH  043%=      5-min Rain = 0
KAM1 201110Z 21010KT 14/02 A2976 RMK A01 T01380016  RH  043%=      5-min Rain = 0
KAM1 201111Z 21010KT 14/02 A2976 RMK A01 T01380016  RH  043%=      5-min Rain = 0
KAM1 201112Z 21009KT 14/02 A2976 RMK A01 T01380016  RH  044%=      5-min Rain = 0
KAM1 201113Z 21009KT 14/02 A2976 RMK A01 T01380017  RH  044%=      5-min Rain = 0
KAM1 201114Z 21010KT 14/02 A2976 RMK A01 T01380017  RH  044%=      5-min Rain = 0
KAM1 201115Z 21010KT 14/02 A2976 RMK A01 T01380017  RH  044%=      5-min Rain = 0
KAM1 201116Z 21008KT 14/02 A2976 RMK A01 T01380017  RH  044%=      5-min Rain = 0
KAM1 201117Z 21009KT 14/02 A2975 RMK A01 T01380017  RH  044%=      5-min Rain = 0
KAM1 201118Z 21009KT 14/02 A2975 RMK A01 T01380018  RH  044%=      5-min Rain = 0
KAM1 201119Z 21009KT 14/02 A2975 RMK A01 T01380018  RH  044%=      5-min Rain = 0
KAM1 201120Z 21009KT 14/02 A2975 RMK A01 T01370018  RH  044%=      5-min Rain = 0
KAM1 201121Z 21009KT 14/02 A2975 RMK A01 T01380018  RH  044%=      5-min Rain = 0
KAM1 201122Z 21007KT 14/02 A2975 RMK A01 T01370018  RH  045%=      5-min Rain = 0
KAM1 201123Z 21009KT 14/02 A2975 RMK A01 T01370019  RH  045%=      5-min Rain = 0
KAM1 201124Z 22008KT 14/02 A2975 RMK A01 T01360019  RH  045%=      5-min Rain = 0
KAM1 201125Z 21008KT 14/02 A2975 RMK A01 T01360019  RH  045%=      5-min Rain = 0
KAM1 201126Z 22008KT 14/02 A2975 RMK A01 T01360019  RH  045%=      5-min Rain = 0
KAM1 201127Z 21008KT 14/02 A2975 RMK A01 T01360019  RH  045%=      5-min Rain = 0
KAM1 201128Z 21008KT 14/02 A2975 RMK A01 T01360019  RH  045%=      5-min Rain = 0
KAM1 201129Z 20009KT 14/02 A2975 RMK A01 T01360020  RH  045%=      5-min Rain = 0
KAM1 201130Z 20009KT 14/02 A2975 RMK A01 T01350020  RH  046%=      5-min Rain = 0
KAM1 201131Z 20010KT 14/02 A2975 RMK A01 T01350020  RH  046%=      5-min Rain = 0
KAM1 201132Z 20009KT 14/02 A2975 RMK A01 T01350020  RH  046%=      5-min Rain = 0
KAM1 201133Z 20009KT 14/02 A2975 RMK A01 T01350020  RH  046%=      5-min Rain = 0
KAM1 201134Z 20008KT 14/02 A2975 RMK A01 T01350021  RH  046%=      5-min Rain = 0
KAM1 201135Z 20010KT 14/02 A2975 RMK A01 T01350021  RH  046%=      5-min Rain = 0
KAM1 201136Z 20010KT 14/02 A2975 RMK A01 T01350022  RH  046%=      5-min Rain = 0
KAM1 201137Z 20009KT 14/02 A2975 RMK A01 T01350021  RH  046%=      5-min Rain = 0
KAM1 201138Z 20010KT 14/02 A2975 RMK A01 T01350022  RH  046%=      5-min Rain = 0
KAM1 201139Z 20009KT 14/02 A2975 RMK A01 T01350022  RH  046%=      5-min Rain = 0
KAM1 201140Z 20009KT 13/02 A2975 RMK A01 T01340022  RH  047%=      5-min Rain = 0
KAM1 201141Z 20009KT 13/02 A2975 RMK A01 T01340022  RH  047%=      5-min Rain = 0
KAM1 201142Z 20009KT 13/02 A2975 RMK A01 T01340023  RH  047%=      5-min Rain = 0
KAM1 201143Z 21009KT 13/02 A2975 RMK A01 T01340023  RH  047%=      5-min Rain = 0
KAM1 201144Z 20009KT 13/02 A2975 RMK A01 T01340024  RH  047%=      5-min Rain = 0
KAM1 201145Z 20010KT 13/03 A2975 RMK A01 T01340025  RH  047%=      5-min Rain = 0
KAM1 201146Z 20010KT 14/03 A2976 RMK A01 T01350025  RH  048%=      5-min Rain = 0
KAM1 201147Z 20009KT 14/03 A2975 RMK A01 T01350026  RH  048%=      5-min Rain = 0
KAM1 201148Z 20010KT 14/03 A2975 RMK A01 T01360027  RH  048%=      5-min Rain = 0
KAM1 201149Z 20009KT 14/03 A2976 RMK A01 T01360027  RH  048%=      5-min Rain = 0
KAM1 201150Z 20008KT 14/03 A2976 RMK A01 T01360028  RH  048%=      5-min Rain = 0
KAM1 201151Z 20010KT 14/03 A2976 RMK A01 T01360028  RH  048%=      5-min Rain = 0
KAM1 201152Z 20010KT 14/03 A2975 RMK A01 T01360028  RH  048%=      5-min Rain = 0
KAM1 201153Z 20010KT 14/03 A2975 RMK A01 T01360029  RH  048%=      5-min Rain = 0
KAM1 201154Z 20010KT 14/03 A2975 RMK A01 T01360029  RH  048%=      5-min Rain = 0
KAM1 201155Z 19010KT 14/03 A2975 RMK A01 T01360029  RH  048%=      5-min Rain = 0
KAM1 201156Z 20009KT 14/03 A2975 RMK A01 T01360030  RH  049%=      5-min Rain = 0
KAM1 201157Z 20010KT 14/03 A2975 RMK A01 T01360030  RH  049%=      5-min Rain = 0
KAM1 201158Z 20010KT 14/03 A2975 RMK A01 T01360030  RH  049%=      5-min Rain = 0
KAM1 201159Z 20010KT 14/03 A2975 RMK A01 T01360031  RH  049%=      5-min Rain = 0
KAM1 201200Z 19009KT 14/03 A2975 RMK A01 T01360032  RH  049%=      5-min Rain = 0
KAM1 201201Z 20009KT 14/03 A2975 RMK A01 T01360032  RH  049%=      5-min Rain = 0
KAM1 201202Z 20009KT 14/03 A2975 RMK A01 T01350032  RH  050%=      5-min Rain = 0
KAM1 201203Z 20009KT 14/03 A2975 RMK A01 T01350033  RH  050%=      5-min Rain = 0
KAM1 201204Z 19009KT 14/03 A2975 RMK A01 T01350033  RH  050%=      5-min Rain = 0
KAM1 201205Z 20010KT 14/03 A2975 RMK A01 T01350033  RH  050%=      5-min Rain = 0
KAM1 201206Z 20010KT 14/03 A2975 RMK A01 T01350033  RH  050%=      5-min Rain = 0
KAM1 201207Z 20010KT 14/03 A2975 RMK A01 T01350034  RH  050%=      5-min Rain = 0
KAM1 201208Z 20012KT 14/03 A2975 RMK A01 T01350034  RH  050%=      5-min Rain = 0
KAM1 201209Z 20010KT 14/04 A2975 RMK A01 T01360035  RH  050%=      5-min Rain = 0
KAM1 201210Z 20011KT 14/04 A2975 RMK A01 T01370036  RH  050%=      5-min Rain = 0
KAM1 201211Z 20009KT 14/04 A2975 RMK A01 T01360035  RH  050%=      5-min Rain = 0
KAM1 201212Z 21010KT 14/04 A2975 RMK A01 T01360035  RH  050%=      5-min Rain = 0
KAM1 201213Z 20009KT 14/04 A2975 RMK A01 T01360035  RH  051%=      5-min Rain = 0
KAM1 201214Z 20009KT 14/04 A2975 RMK A01 T01360035  RH  051%=      5-min Rain = 0
KAM1 201215Z 20008KT 14/04 A2975 RMK A01 T01360035  RH  051%=      5-min Rain = 0
KAM1 201216Z 20009KT 14/04 A2974 RMK A01 T01350035  RH  051%=      5-min Rain = 0
KAM1 201217Z 21009KT 14/04 A2974 RMK A01 T01350035  RH  051%=      5-min Rain = 0
KAM1 201218Z 20009KT 14/04 A2975 RMK A01 T01350036  RH  051%=      5-min Rain = 0
KAM1 201219Z 21008KT 13/04 A2975 RMK A01 T01340036  RH  051%=      5-min Rain = 0
KAM1 201220Z 21009KT 13/04 A2975 RMK A01 T01340036  RH  051%=      5-min Rain = 0
KAM1 201221Z 20010KT 13/04 A2975 RMK A01 T01340036  RH  052%=      5-min Rain = 0
KAM1 201222Z 20009KT 13/04 A2975 RMK A01 T01340036  RH  052%=      5-min Rain = 0
KAM1 201223Z 21008KT 13/04 A2975 RMK A01 T01340036  RH  052%=      5-min Rain = 0
KAM1 201224Z 21009KT 13/04 A2975 RMK A01 T01340036  RH  052%=      5-min Rain = 0
KAM1 201225Z 20008KT 13/04 A2975 RMK A01 T01340037  RH  052%=      5-min Rain = 0
KAM1 201226Z 20009KT 13/04 A2975 RMK A01 T01340037  RH  052%=      5-min Rain = 0
KAM1 201227Z 20008KT 13/04 A2975 RMK A01 T01340038  RH  052%=      5-min Rain = 0
KAM1 201228Z 20008KT 13/04 A2975 RMK A01 T01340038  RH  052%=      5-min Rain = 0
KAM1 201229Z 20008KT 13/04 A2975 RMK A01 T01340038  RH  052%=      5-min Rain = 0
KAM1 201230Z 20009KT 13/04 A2975 RMK A01 T01340038  RH  052%=      5-min Rain = 0
KAM1 201231Z 20009KT 13/04 A2975 RMK A01 T01330038  RH  052%=      5-min Rain = 0
KAM1 201232Z 20009KT 13/04 A2975 RMK A01 T01340038  RH  052%=      5-min Rain = 0
KAM1 201233Z 20009KT 13/04 A2975 RMK A01 T01330038  RH  052%=      5-min Rain = 0
KAM1 201234Z 20008KT 13/04 A2975 RMK A01 T01340039  RH  052%=      5-min Rain = 0
KAM1 201235Z 20008KT 13/04 A2975 RMK A01 T01340039  RH  052%=      5-min Rain = 0
KAM1 201236Z 20009KT 13/04 A2975 RMK A01 T01340039  RH  052%=      5-min Rain = 0
KAM1 201237Z 20010KT 13/04 A2975 RMK A01 T01340039  RH  052%=      5-min Rain = 0
KAM1 201238Z 20008KT 14/04 A2975 RMK A01 T01350039  RH  052%=      5-min Rain = 0
KAM1 201239Z 20009KT 13/04 A2975 RMK A01 T01340039  RH  052%=      5-min Rain = 0
KAM1 201240Z 20008KT 13/04 A2975 RMK A01 T01340039  RH  052%=      5-min Rain = 0
KAM1 201241Z 19007KT 14/04 A2975 RMK A01 T01350039  RH  052%=      5-min Rain = 0
KAM1 201242Z 19008KT 13/04 A2974 RMK A01 T01340039  RH  052%=      5-min Rain = 0
KAM1 201243Z 19009KT 13/04 A2974 RMK A01 T01340039  RH  052%=      5-min Rain = 0
KAM1 201244Z 19008KT 14/04 A2974 RMK A01 T01350039  RH  052%=      5-min Rain = 0
KAM1 201245Z 19007KT 14/04 A2974 RMK A01 T01350039  RH  052%=      5-min Rain = 0
KAM1 201246Z 19008KT 14/04 A2974 RMK A01 T01350039  RH  052%=      5-min Rain = 0
KAM1 201247Z 19008KT 14/04 A2974 RMK A01 T01350040  RH  052%=      5-min Rain = 0
KAM1 201248Z 20006KT 14/04 A2974 RMK A01 T01350040  RH  053%=      5-min Rain = 0
KAM1 201249Z 19008KT 13/04 A2974 RMK A01 T01340039  RH  053%=      5-min Rain = 0
KAM1 201250Z 20007KT 13/04 A2975 RMK A01 T01340040  RH  053%=      5-min Rain = 0
KAM1 201251Z 20008KT 13/04 A2975 RMK A01 T01340040  RH  053%=      5-min Rain = 0
KAM1 201252Z 20007KT 14/04 A2975 RMK A01 T01350040  RH  053%=      5-min Rain = 0
KAM1 201253Z 20007KT 14/04 A2975 RMK A01 T01350040  RH  053%=      5-min Rain = 0
KAM1 201254Z 21007KT 14/04 A2975 RMK A01 T01350041  RH  053%=      5-min Rain = 0
KAM1 201255Z 21006KT 14/04 A2974 RMK A01 T01350041  RH  053%=      5-min Rain = 0
KAM1 201256Z 21007KT 14/04 A2974 RMK A01 T01350041  RH  053%=      5-min Rain = 0
KAM1 201257Z 21008KT 14/04 A2974 RMK A01 T01360042  RH  053%=      5-min Rain = 0
KAM1 201258Z 21007KT 14/04 A2974 RMK A01 T01360043  RH  053%=      5-min Rain = 0
KAM1 201259Z 21008KT 14/04 A2974 RMK A01 T01370043  RH  053%=      5-min Rain = 0
KAM1 201300Z 21007KT 14/04 A2974 RMK A01 T01370043  RH  053%=      5-min Rain = 0
KAM1 201301Z 21007KT 14/04 A2974 RMK A01 T01370043  RH  053%=      5-min Rain = 0
KAM1 201302Z 21005KT 14/04 A2974 RMK A01 T01370043  RH  053%=      5-min Rain = 0
KAM1 201303Z 22005KT 14/04 A2974 RMK A01 T01370043  RH  053%=      5-min Rain = 0
KAM1 201304Z 23006KT 14/04 A2975 RMK A01 T01360043  RH  053%=      5-min Rain = 0
KAM1 201305Z 23006KT 14/04 A2975 RMK A01 T01360043  RH  054%=      5-min Rain = 0
KAM1 201306Z 23006KT 14/04 A2975 RMK A01 T01350043  RH  054%=      5-min Rain = 0
KAM1 201307Z 23006KT 14/04 A2975 RMK A01 T01350043  RH  054%=      5-min Rain = 0
KAM1 201308Z 23006KT 13/04 A2975 RMK A01 T01340043  RH  054%=      5-min Rain = 0
KAM1 201309Z 21006KT 13/04 A2975 RMK A01 T01340043  RH  054%=      5-min Rain = 0
KAM1 201310Z 20006KT 13/04 A2975 RMK A01 T01340044  RH  054%=      5-min Rain = 0
KAM1 201311Z 20007KT 13/04 A2974 RMK A01 T01340044  RH  054%=      5-min Rain = 0
KAM1 201312Z 20009KT 13/04 A2974 RMK A01 T01340044  RH  055%=      5-min Rain = 0
KAM1 201313Z 19008KT 13/04 A2974 RMK A01 T01340044  RH  055%=      5-min Rain = 0
KAM1 201314Z 20008KT 13/05 A2974 RMK A01 T01340045  RH  055%=      5-min Rain = 0
KAM1 201315Z 19008KT 13/05 A2974 RMK A01 T01340045  RH  055%=      5-min Rain = 0
KAM1 201316Z 20008KT 13/05 A2975 RMK A01 T01340045  RH  055%=      5-min Rain = 0
KAM1 201317Z 20008KT 14/05 A2975 RMK A01 T01350046  RH  055%=      5-min Rain = 0
KAM1 201318Z 19007KT 14/05 A2975 RMK A01 T01350046  RH  055%=      5-min Rain = 0
KAM1 201319Z 20007KT 14/05 A2975 RMK A01 T01350046  RH  055%=      5-min Rain = 0
KAM1 201320Z 19008KT 14/05 A2975 RMK A01 T01350046  RH  055%=      5-min Rain = 0
KAM1 201321Z 19008KT 14/05 A2975 RMK A01 T01350046  RH  055%=      5-min Rain = 0
KAM1 201322Z 18009KT 14/05 A2975 RMK A01 T01350046  RH  055%=      5-min Rain = 0
KAM1 201323Z 18008KT 14/05 A2975 RMK A01 T01350047  RH  055%=      5-min Rain = 0
KAM1 201324Z 17008KT 14/05 A2975 RMK A01 T01350047  RH  055%=      5-min Rain = 0
KAM1 201325Z 16008KT 13/05 A2975 RMK A01 T01340047  RH  056%=      5-min Rain = 0
KAM1 201326Z 16008KT 13/05 A2975 RMK A01 T01340047  RH  056%=      5-min Rain = 0
KAM1 201327Z 15006KT 13/05 A2975 RMK A01 T01340048  RH  056%=      5-min Rain = 0
KAM1 201328Z 15006KT 13/05 A2975 RMK A01 T01340048  RH  056%=      5-min Rain = 0
KAM1 201329Z 14007KT 13/05 A2975 RMK A01 T01340048  RH  056%=      5-min Rain = 0
KAM1 201330Z 14005KT 13/05 A2975 RMK A01 T01330048  RH  056%=      5-min Rain = 0
KAM1 201331Z 14006KT 13/05 A2975 RMK A01 T01330048  RH  056%=      5-min Rain = 0
KAM1 201332Z 14006KT 13/05 A2975 RMK A01 T01320047  RH  056%=      5-min Rain = 0
KAM1 201333Z 16004KT 13/05 A2975 RMK A01 T01310046  RH  056%=      5-min Rain = 0
KAM1 201334Z 17004KT 13/05 A2975 RMK A01 T01300046  RH  057%=      5-min Rain = 0
KAM1 201335Z 17005KT 13/05 A2975 RMK A01 T01300046  RH  057%=      5-min Rain = 0
KAM1 201336Z 18004KT 13/05 A2975 RMK A01 T01290046  RH  057%=      5-min Rain = 0
KAM1 201337Z 19006KT 13/05 A2975 RMK A01 T01290046  RH  057%=      5-min Rain = 0
KAM1 201338Z 19005KT 13/05 A2975 RMK A01 T01290047  RH  058%=      5-min Rain = 0
KAM1 201339Z 20006KT 13/05 A2975 RMK A01 T01290048  RH  058%=      5-min Rain = 0
KAM1 201340Z 19007KT 13/05 A2975 RMK A01 T01300049  RH  058%=      5-min Rain = 0
KAM1 201341Z 19007KT 13/05 A2975 RMK A01 T01310049  RH  058%=      5-min Rain = 0
KAM1 201342Z 19008KT 13/05 A2976 RMK A01 T01310050  RH  058%=      5-min Rain = 0
KAM1 201343Z 19008KT 13/05 A2976 RMK A01 T01320051  RH  058%=      5-min Rain = 0
KAM1 201344Z 18008KT 13/05 A2976 RMK A01 T01330052  RH  058%=      5-min Rain = 0
KAM1 201345Z 18007KT 13/05 A2976 RMK A01 T01340053  RH  058%=      5-min Rain = 0
KAM1 201346Z 17007KT 13/05 A2976 RMK A01 T01340052  RH  057%=      5-min Rain = 0
KAM1 201347Z 17008KT 13/05 A2976 RMK A01 T01330050  RH  057%=      5-min Rain = 0
KAM1 201348Z 18008KT 13/05 A2976 RMK A01 T01310049  RH  057%=      5-min Rain = 0
KAM1 201349Z 17008KT 13/05 A2976 RMK A01 T01300048  RH  058%=      5-min Rain = 0
KAM1 201350Z 18010KT 13/05 A2976 RMK A01 T01290049  RH  058%=      5-min Rain = 0
KAM1 201351Z 18010KT 13/05 A2976 RMK A01 T01300050  RH  058%=      5-min Rain = 0
KAM1 201352Z 18010KT 13/05 A2976 RMK A01 T01310051  RH  058%=      5-min Rain = 0
KAM1 201353Z 18011KT 13/05 A2976 RMK A01 T01330053  RH  059%=      5-min Rain = 0
KAM1 201354Z 19012KT 14/06 A2976 RMK A01 T01350056  RH  058%=      5-min Rain = 0
KAM1 201355Z 18010KT 14/06 A2976 RMK A01 T01370056  RH  058%=      5-min Rain = 0
KAM1 201356Z 18011KT 14/06 A2976 RMK A01 T01380055  RH  057%=      5-min Rain = 0
KAM1 201357Z 18011KT 14/06 A2976 RMK A01 T01380056  RH  057%=      5-min Rain = 0
KAM1 201358Z 18010KT 14/06 A2976 RMK A01 T01380055  RH  057%=      5-min Rain = 0
KAM1 201359Z 19010KT 14/06 A2976 RMK A01 T01380056  RH  057%=      5-min Rain = 0
KAM1 201400Z 19010KT 14/06 A2976 RMK A01 T01380056  RH  058%=      5-min Rain = 0
KAM1 201401Z 19009KT 14/06 A2976 RMK A01 T01380056  RH  058%=      5-min Rain = 0
KAM1 201402Z 19010KT 14/06 A2976 RMK A01 T01380057  RH  058%=      5-min Rain = 0
KAM1 201403Z 19010KT 14/06 A2977 RMK A01 T01390057  RH  058%=      5-min Rain = 0
KAM1 201404Z 20010KT 14/06 A2976 RMK A01 T01390057  RH  058%=      5-min Rain = 0
KAM1 201405Z 19010KT 14/06 A2976 RMK A01 T01400057  RH  058%=      5-min Rain = 0
KAM1 201406Z 20010KT 14/06 A2976 RMK A01 T01400058  RH  058%=      5-min Rain = 0
KAM1 201407Z 19009KT 14/06 A2976 RMK A01 T01400058  RH  057%=      5-min Rain = 0
KAM1 201408Z 20008KT 14/06 A2976 RMK A01 T01400058  RH  058%=      5-min Rain = 0
KAM1 201409Z 20009KT 14/06 A2976 RMK A01 T01400058  RH  058%=      5-min Rain = 0
KAM1 201410Z 19009KT 14/06 A2976 RMK A01 T01400058  RH  058%=      5-min Rain = 0
KAM1 201411Z 19008KT 14/06 A2977 RMK A01 T01390058  RH  058%=      5-min Rain = 0
KAM1 201412Z 19009KT 14/06 A2976 RMK A01 T01390058  RH  058%=      5-min Rain = 0
KAM1 201413Z 18008KT 14/06 A2977 RMK A01 T01390058  RH  058%=      5-min Rain = 0
KAM1 201414Z 18008KT 14/06 A2977 RMK A01 T01380058  RH  058%=      5-min Rain = 0
KAM1 201415Z 18009KT 14/06 A2977 RMK A01 T01380058  RH  058%=      5-min Rain = 0
KAM1 201416Z 18009KT 14/06 A2977 RMK A01 T01370057  RH  059%=      5-min Rain = 0
KAM1 201417Z 17009KT 14/06 A2977 RMK A01 T01360057  RH  059%=      5-min Rain = 0
KAM1 201418Z 17009KT 14/06 A2977 RMK A01 T01350057  RH  059%=      5-min Rain = 0
KAM1 201419Z 17009KT 14/06 A2977 RMK A01 T01350057  RH  059%=      5-min Rain = 0
KAM1 201420Z 17009KT 13/06 A2977 RMK A01 T01340057  RH  060%=      5-min Rain = 0
KAM1 201421Z 17009KT 13/06 A2977 RMK A01 T01330056  RH  060%=      5-min Rain = 0
KAM1 201422Z 17009KT 13/06 A2977 RMK A01 T01330057  RH  060%=      5-min Rain = 0
KAM1 201423Z 17008KT 13/06 A2977 RMK A01 T01330057  RH  060%=      5-min Rain = 0
KAM1 201424Z 17007KT 13/06 A2977 RMK A01 T01330057  RH  060%=      5-min Rain = 0
KAM1 201425Z 18008KT 13/06 A2977 RMK A01 T01320057  RH  060%=      5-min Rain = 0
KAM1 201426Z 17007KT 13/06 A2977 RMK A01 T01320056  RH  060%=      5-min Rain = 0
KAM1 201427Z 17008KT 13/06 A2977 RMK A01 T01320057  RH  060%=      5-min Rain = 0
KAM1 201428Z 18008KT 13/06 A2977 RMK A01 T01320057  RH  060%=      5-min Rain = 0
KAM1 201429Z 18008KT 13/06 A2977 RMK A01 T01320057  RH  060%=      5-min Rain = 0
KAM1 201430Z 18008KT 13/06 A2977 RMK A01 T01330058  RH  060%=      5-min Rain = 0
KAM1 201431Z 18010KT 13/06 A2977 RMK A01 T01340059  RH  060%=      5-min Rain = 0
KAM1 201432Z 18009KT 14/06 A2977 RMK A01 T01360060  RH  060%=      5-min Rain = 0
KAM1 201433Z 18009KT 14/06 A2977 RMK A01 T01390061  RH  059%=      5-min Rain = 0
KAM1 201434Z 18009KT 14/06 A2977 RMK A01 T01400060  RH  059%=      5-min Rain = 0
KAM1 201435Z 18007KT 14/06 A2977 RMK A01 T01400060  RH  059%=      5-min Rain = 0
KAM1 201436Z 18007KT 14/06 A2977 RMK A01 T01400060  RH  059%=      5-min Rain = 0
KAM1 201437Z 18008KT 14/06 A2977 RMK A01 T01390060  RH  059%=      5-min Rain = 0
KAM1 201438Z 19006KT 14/06 A2977 RMK A01 T01400060  RH  059%=      5-min Rain = 0
KAM1 201439Z 18008KT 14/06 A2977 RMK A01 T01400060  RH  059%=      5-min Rain = 0
KAM1 201440Z 18006KT 14/06 A2977 RMK A01 T01410060  RH  058%=      5-min Rain = 0
KAM1 201441Z 18008KT 14/06 A2977 RMK A01 T01430061  RH  058%=      5-min Rain = 0
KAM1 201442Z 18008KT 15/06 A2978 RMK A01 T01450061  RH  057%=      5-min Rain = 0
KAM1 201443Z 18009KT 15/06 A2978 RMK A01 T01460061  RH  057%=      5-min Rain = 0
KAM1 201444Z 18009KT 15/06 A2978 RMK A01 T01460061  RH  056%=      5-min Rain = 0
KAM1 201445Z 18009KT 15/06 A2978 RMK A01 T01470061  RH  056%=      5-min Rain = 0
KAM1 201446Z 17010KT 15/06 A2978 RMK A01 T01480061  RH  056%=      5-min Rain = 0
KAM1 201447Z 17008KT 15/06 A2978 RMK A01 T01490061  RH  056%=      5-min Rain = 0
KAM1 201448Z 17008KT 15/06 A2978 RMK A01 T01480061  RH  056%=      5-min Rain = 0
KAM1 201449Z 17007KT 15/06 A2978 RMK A01 T01480060  RH  056%=      5-min Rain = 0
KAM1 201450Z 17007KT 15/06 A2978 RMK A01 T01480061  RH  056%=      5-min Rain = 0
KAM1 201451Z 18006KT 15/06 A2978 RMK A01 T01480062  RH  056%=      5-min Rain = 0
KAM1 201452Z 17009KT 15/06 A2978 RMK A01 T01470061  RH  056%=      5-min Rain = 0
KAM1 201453Z 18009KT 15/06 A2978 RMK A01 T01460060  RH  056%=      5-min Rain = 0
KAM1 201454Z 17009KT 14/06 A2978 RMK A01 T01440059  RH  056%=      5-min Rain = 0
KAM1 201455Z 17008KT 14/06 A2978 RMK A01 T01430058  RH  057%=      5-min Rain = 0
KAM1 201456Z 17008KT 14/06 A2978 RMK A01 T01420059  RH  057%=      5-min Rain = 0
KAM1 201457Z 17009KT 14/06 A2978 RMK A01 T01410058  RH  058%=      5-min Rain = 0
KAM1 201458Z 16010KT 14/06 A2978 RMK A01 T01400059  RH  058%=      5-min Rain = 0
KAM1 201459Z 17009KT 14/06 A2978 RMK A01 T01390058  RH  058%=      5-min Rain = 0
KAM1 201500Z 17010KT 14/06 A2978 RMK A01 T01380058  RH  058%=      5-min Rain = 0
KAM1 201501Z 17010KT 14/06 A2978 RMK A01 T01380059  RH  059%=      5-min Rain = 0
KAM1 201502Z 17011KT 14/06 A2978 RMK A01 T01380059  RH  059%=      5-min Rain = 0
KAM1 201503Z 17008KT 14/06 A2978 RMK A01 T01370059  RH  059%=      5-min Rain = 0
KAM1 201504Z 17009KT 14/06 A2978 RMK A01 T01370059  RH  059%=      5-min Rain = 0
KAM1 201505Z 17009KT 14/06 A2978 RMK A01 T01370059  RH  059%=      5-min Rain = 0
KAM1 201506Z 17010KT 14/06 A2978 RMK A01 T01370059  RH  059%=      5-min Rain = 0
KAM1 201507Z 18009KT 14/06 A2978 RMK A01 T01370059  RH  059%=      5-min Rain = 0
KAM1 201508Z 17009KT 14/06 A2978 RMK A01 T01370059  RH  059%=      5-min Rain = 0
KAM1 201509Z 17008KT 14/06 A2978 RMK A01 T01370059  RH  059%=      5-min Rain = 0
KAM1 201510Z 17010KT 14/06 A2978 RMK A01 T01380060  RH  059%=      5-min Rain = 0
KAM1 201511Z 17010KT 14/06 A2978 RMK A01 T01380059  RH  059%=      5-min Rain = 0
KAM1 201512Z 17009KT 14/06 A2978 RMK A01 T01380060  RH  059%=      5-min Rain = 0
KAM1 201513Z 17008KT 14/06 A2978 RMK A01 T01380060  RH  059%=      5-min Rain = 0
KAM1 201514Z 17009KT 14/06 A2978 RMK A01 T01390061  RH  059%=      5-min Rain = 0
KAM1 201515Z 17008KT 14/06 A2978 RMK A01 T01380060  RH  059%=      5-min Rain = 0
KAM1 201516Z 16008KT 14/06 A2978 RMK A01 T01390061  RH  059%=      5-min Rain = 0
KAM1 201517Z 16008KT 14/06 A2978 RMK A01 T01380060  RH  059%=      5-min Rain = 0
KAM1 201518Z 16009KT 14/06 A2978 RMK A01 T01380060  RH  059%=      5-min Rain = 0
KAM1 201519Z 17009KT 14/06 A2978 RMK A01 T01370060  RH  060%=      5-min Rain = 0
KAM1 201520Z 17009KT 14/06 A2978 RMK A01 T01360060  RH  060%=      5-min Rain = 0
KAM1 201521Z 17010KT 14/06 A2978 RMK A01 T01360060  RH  060%=      5-min Rain = 0
KAM1 201522Z 18008KT 14/06 A2978 RMK A01 T01350060  RH  060%=      5-min Rain = 0
KAM1 201523Z 17009KT 14/06 A2978 RMK A01 T01350061  RH  061%=      5-min Rain = 0
KAM1 201524Z 17009KT 14/06 A2979 RMK A01 T01350060  RH  061%=      5-min Rain = 0
KAM1 201525Z 17008KT 14/06 A2979 RMK A01 T01350061  RH  061%=      5-min Rain = 0
KAM1 201526Z 17011KT 13/06 A2978 RMK A01 T01340060  RH  061%=      5-min Rain = 0
KAM1 201527Z 17009KT 13/06 A2979 RMK A01 T01340060  RH  061%=      5-min Rain = 0
KAM1 201528Z 18011KT 14/06 A2979 RMK A01 T01350061  RH  061%=      5-min Rain = 0
KAM1 201529Z 18009KT 14/06 A2979 RMK A01 T01350061  RH  061%=      5-min Rain = 0
KAM1 201530Z 18009KT 13/06 A2979 RMK A01 T01340060  RH  061%=      5-min Rain = 0
KAM1 201531Z 17010KT 14/06 A2979 RMK A01 T01350061  RH  061%=      5-min Rain = 0
KAM1 201532Z 17009KT 14/06 A2979 RMK A01 T01350061  RH  061%=      5-min Rain = 0
KAM1 201533Z 18008KT 14/06 A2979 RMK A01 T01350061  RH  061%=      5-min Rain = 0
KAM1 201534Z 18009KT 14/06 A2979 RMK A01 T01350061  RH  061%=      5-min Rain = 0
KAM1 201535Z 18011KT 14/06 A2978 RMK A01 T01350061  RH  061%=      5-min Rain = 0
KAM1 201536Z 17011KT 14/06 A2978 RMK A01 T01360062  RH  061%=      5-min Rain = 0
KAM1 201537Z 18009KT 14/06 A2978 RMK A01 T01360062  RH  061%=      5-min Rain = 0
KAM1 201538Z 18009KT 14/06 A2978 RMK A01 T01360062  RH  061%=      5-min Rain = 0
KAM1 201539Z 18011KT 14/06 A2979 RMK A01 T01370062  RH  061%=      5-min Rain = 0
KAM1 201540Z 18011KT 14/06 A2979 RMK A01 T01380063  RH  061%=      5-min Rain = 0
KAM1 201541Z 18009KT 14/06 A2979 RMK A01 T01380063  RH  060%=      5-min Rain = 0
KAM1 201542Z 19009KT 14/06 A2979 RMK A01 T01390063  RH  060%=      5-min Rain = 0
KAM1 201543Z 18008KT 14/06 A2979 RMK A01 T01390064  RH  060%=      5-min Rain = 0
KAM1 201544Z 18010KT 14/06 A2979 RMK A01 T01400064  RH  060%=      5-min Rain = 0
KAM1 201545Z 18010KT 14/06 A2979 RMK A01 T01410064  RH  060%=      5-min Rain = 0
KAM1 201546Z 19011KT 14/06 A2979 RMK A01 T01410064  RH  060%=      5-min Rain = 0
KAM1 201547Z 18010KT 14/06 A2979 RMK A01 T01410064  RH  060%=      5-min Rain = 0
KAM1 201548Z 18009KT 14/06 A2979 RMK A01 T01410064  RH  060%=      5-min Rain = 0
KAM1 201549Z 18009KT 14/07 A2979 RMK A01 T01410065  RH  060%=      5-min Rain = 0
KAM1 201550Z 18009KT 14/07 A2979 RMK A01 T01410065  RH  060%=      5-min Rain = 0
KAM1 201551Z 18010KT 14/07 A2978 RMK A01 T01420065  RH  060%=      5-min Rain = 0
KAM1 201552Z 18010KT 14/07 A2978 RMK A01 T01420065  RH  060%=      5-min Rain = 0
KAM1 201553Z 18011KT 14/07 A2979 RMK A01 T01420065  RH  060%=      5-min Rain = 0
KAM1 201554Z 18009KT 14/07 A2979 RMK A01 T01420066  RH  060%=      5-min Rain = 0
KAM1 201555Z 19010KT 14/07 A2979 RMK A01 T01430066  RH  060%=      5-min Rain = 0
KAM1 201556Z 19011KT 14/07 A2979 RMK A01 T01440066  RH  060%=      5-min Rain = 0
KAM1 201557Z 19009KT 14/07 A2979 RMK A01 T01430066  RH  060%=      5-min Rain = 0
KAM1 201558Z 18011KT 14/07 A2979 RMK A01 T01440067  RH  060%=      5-min Rain = 0
KAM1 201559Z 19009KT 14/07 A2979 RMK A01 T01440067  RH  060%=      5-min Rain = 0
KAM1 201600Z 19011KT 15/07 A2979 RMK A01 T01450068  RH  060%=      5-min Rain = 0
KAM1 201601Z 19011KT 15/07 A2979 RMK A01 T01450068  RH  060%=      5-min Rain = 0
KAM1 201602Z 18010KT 15/07 A2979 RMK A01 T01460068  RH  060%=      5-min Rain = 0
KAM1 201603Z 19011KT 15/07 A2979 RMK A01 T01460069  RH  060%=      5-min Rain = 0
KAM1 201604Z 18012KT 15/07 A2979 RMK A01 T01470069  RH  060%=      5-min Rain = 0
KAM1 201605Z 19011KT 15/07 A2979 RMK A01 T01470069  RH  060%=      5-min Rain = 0
KAM1 201606Z 19012KT 15/07 A2979 RMK A01 T01470069  RH  059%=      5-min Rain = 0
KAM1 201607Z 18011KT 15/07 A2979 RMK A01 T01480069  RH  059%=      5-min Rain = 0
KAM1 201608Z 19011KT 15/07 A2979 RMK A01 T01480070  RH  059%=      5-min Rain = 0
KAM1 201609Z 19011KT 15/07 A2979 RMK A01 T01490071  RH  059%=      5-min Rain = 0
KAM1 201610Z 20011KT 15/07 A2979 RMK A01 T01500071  RH  059%=      5-min Rain = 0
KAM1 201611Z 19011KT 15/07 A2979 RMK A01 T01500071  RH  059%=      5-min Rain = 0
KAM1 201612Z 20012KT 15/07 A2979 RMK A01 T01510072  RH  059%=      5-min Rain = 0
KAM1 201613Z 19011KT 15/07 A2979 RMK A01 T01520073  RH  059%=      5-min Rain = 0
KAM1 201614Z 18013KT 15/07 A2979 RMK A01 T01520074  RH  059%=      5-min Rain = 0
KAM1 201615Z 18013KT 15/08 A2979 RMK A01 T01540075  RH  059%=      5-min Rain = 0
KAM1 201616Z 18013KT 15/08 A2978 RMK A01 T01540075  RH  059%=      5-min Rain = 0
KAM1 201617Z 18011KT 15/08 A2979 RMK A01 T01540075  RH  059%=      5-min Rain = 0
KAM1 201618Z 17010KT 15/08 A2979 RMK A01 T01540076  RH  060%=      5-min Rain = 0
KAM1 201619Z 18011KT 16/08 A2979 RMK A01 T01560077  RH  059%=      5-min Rain = 0
KAM1 201620Z 18008KT 16/08 A2979 RMK A01 T01560077  RH  059%=      5-min Rain = 0
KAM1 201621Z 18010KT 16/08 A2979 RMK A01 T01570078  RH  059%=      5-min Rain = 0
KAM1 201622Z 18010KT 16/08 A2979 RMK A01 T01590079  RH  059%=      5-min Rain = 0
KAM1 201623Z 18011KT 16/08 A2979 RMK A01 T01600079  RH  059%=      5-min Rain = 0
KAM1 201624Z 18012KT 16/08 A298 RMK A01 T01600079  RH  059%=      5-min Rain = 0
KAM1 201625Z 19010KT 16/08 A298 RMK A01 T01610080  RH  059%=      5-min Rain = 0
KAM1 201626Z 19010KT 16/08 A298 RMK A01 T01620082  RH  059%=      5-min Rain = 0
KAM1 201627Z 19010KT 16/08 A298 RMK A01 T01640083  RH  059%=      5-min Rain = 0
KAM1 201628Z 20012KT 16/08 A298 RMK A01 T01640082  RH  058%=      5-min Rain = 0
KAM1 201629Z 20011KT 16/08 A2981 RMK A01 T01640083  RH  058%=      5-min Rain = 0
KAM1 201630Z 21010KT 17/08 A2981 RMK A01 T01650083  RH  059%=      5-min Rain = 0
KAM1 201631Z 21010KT 16/08 A2981 RMK A01 T01640083  RH  058%=      5-min Rain = 0
KAM1 201632Z 23008KT 17/08 A2981 RMK A01 T01650083  RH  059%=      5-min Rain = 0
KAM1 201633Z 22010KT 17/08 A2981 RMK A01 T01650083  RH  059%=      5-min Rain = 0
KAM1 201634Z 23009KT 17/08 A2981 RMK A01 T01650083  RH  059%=      5-min Rain = 0
KAM1 201635Z 23010KT 17/08 A2981 RMK A01 T01650083  RH  058%=      5-min Rain = 0
KAM1 201636Z 22012KT 17/08 A2981 RMK A01 T01660084  RH  058%=      5-min Rain = 0
KAM1 201637Z 22012KT 17/08 A2981 RMK A01 T01660084  RH  058%=      5-min Rain = 0
KAM1 201638Z 22014KT 17/08 A2981 RMK A01 T01670084  RH  058%=      5-min Rain = 0
KAM1 201639Z 21011KT 17/09 A2981 RMK A01 T01670085  RH  059%=      5-min Rain = 0
KAM1 201640Z 22015KT 17/09 A2981 RMK A01 T01660086  RH  059%=      5-min Rain = 0
KAM1 201641Z 22015KT 17/09 A2981 RMK A01 T01660088  RH  060%=      5-min Rain = 0
KAM1 201642Z 22017KT 17/09 A2981 RMK A01 T01660091  RH  061%=      5-min Rain = 0
KAM1 201643Z 22016KT 17/09 A2981 RMK A01 T01660093  RH  062%=      5-min Rain = 0
KAM1 201644Z 22018G23KT 17/10 A2981 RMK A01 T01660096  RH  063%=      5-min Rain = 0
KAM1 201645Z 22020KT 16/10 A2981 RMK A01 T01640097  RH  064%=      5-min Rain = 0
KAM1 201646Z 22018KT 16/10 A2982 RMK A01 T01620100  RH  067%=      5-min Rain = 0
KAM1 201647Z 22018G23KT 16/10 A2981 RMK A01 T01590102  RH  069%=      5-min Rain = 0
KAM1 201648Z 22017KT 16/10 A2981 RMK A01 T01570103  RH  070%=      5-min Rain = 0
KAM1 201649Z 23015KT 16/11 A2981 RMK A01 T01550105  RH  072%=      5-min Rain = 0
KAM1 201650Z 23013KT 15/11 A2981 RMK A01 T01530107  RH  074%=      5-min Rain = 0
KAM1 201651Z 23012G18KT 15/11 A2981 RMK A01 T01510108  RH  076%=      5-min Rain = 0
KAM1 201652Z 23014KT 15/11 A2981 RMK A01 T01490110  RH  077%=      5-min Rain = 0.01
KAM1 201653Z 23015KT 15/11 A2981 RMK A01 T01470112  RH  079%=      5-min Rain = 0
KAM1 201654Z 23015KT 15/11 A298 RMK A01 T01460113  RH  080%=      5-min Rain = 0
KAM1 201655Z 22014KT 15/11 A2981 RMK A01 T01460114  RH  081%=      5-min Rain = 0
KAM1 201656Z 22014KT 15/12 A2981 RMK A01 T01450115  RH  082%=      5-min Rain = 0
KAM1 201657Z 22012KT 15/12 A2981 RMK A01 T01450115  RH  082%=      5-min Rain = 0
KAM1 201658Z 22013KT 15/12 A2981 RMK A01 T01450116  RH  083%=      5-min Rain = 0
KAM1 201659Z 22014KT 14/12 A2981 RMK A01 T01440115  RH  083%=      5-min Rain = 0
KAM1 201700Z 22015KT 14/11 A2981 RMK A01 T01440114  RH  082%=      5-min Rain = 0
KAM1 201701Z 22015KT 14/11 A2981 RMK A01 T01440113  RH  082%=      5-min Rain = 0
KAM1 201702Z 22014KT 15/12 A2982 RMK A01 T01450115  RH  082%=      5-min Rain = 0
KAM1 201703Z 22013KT 14/11 A2982 RMK A01 T01440114  RH  082%=      5-min Rain = 0
KAM1 201704Z 22013KT 14/12 A2981 RMK A01 T01440115  RH  083%=      5-min Rain = 0
KAM1 201705Z 22011KT 14/12 A2981 RMK A01 T01440115  RH  083%=      5-min Rain = 0
KAM1 201706Z 22011KT 14/12 A2981 RMK A01 T01430115  RH  083%=      5-min Rain = 0
KAM1 201707Z 22009KT 14/12 A2981 RMK A01 T01430116  RH  084%=      5-min Rain = 0
KAM1 201708Z 22009KT 14/12 A2981 RMK A01 T01430117  RH  084%=      5-min Rain = 0
KAM1 201709Z 22010KT 14/12 A2981 RMK A01 T01430116  RH  084%=      5-min Rain = 0
KAM1 201710Z 22009KT 14/12 A2981 RMK A01 T01440118  RH  084%=      5-min Rain = 0
KAM1 201711Z 21010KT 14/12 A298 RMK A01 T01430118  RH  084%=      5-min Rain = 0
KAM1 201712Z 21010KT 14/12 A298 RMK A01 T01440116  RH  084%=      5-min Rain = 0
KAM1 201713Z 21010KT 14/12 A298 RMK A01 T01440118  RH  084%=      5-min Rain = 0
KAM1 201714Z 21008KT 15/12 A298 RMK A01 T01450119  RH  084%=      5-min Rain = 0
KAM1 201715Z 21010KT 15/12 A298 RMK A01 T01450119  RH  085%=      5-min Rain = 0
KAM1 201716Z 22009KT 15/12 A298 RMK A01 T01450118  RH  084%=      5-min Rain = 0
KAM1 201717Z 22009KT 15/12 A298 RMK A01 T01460117  RH  083%=      5-min Rain = 0
KAM1 201718Z 22008KT 15/12 A298 RMK A01 T01470118  RH  083%=      5-min Rain = 0
KAM1 201719Z 22009KT 15/12 A298 RMK A01 T01480119  RH  083%=      5-min Rain = 0
KAM1 201720Z 23008KT 15/12 A298 RMK A01 T01480119  RH  083%=      5-min Rain = 0
KAM1 201721Z 22009KT 15/12 A298 RMK A01 T01480118  RH  082%=      5-min Rain = 0
KAM1 201722Z 23009KT 15/12 A298 RMK A01 T01490116  RH  081%=      5-min Rain = 0
KAM1 201723Z 23011KT 15/12 A298 RMK A01 T01490118  RH  081%=      5-min Rain = 0
KAM1 201724Z 23011KT 15/12 A298 RMK A01 T01490116  RH  081%=      5-min Rain = 0
KAM1 201725Z 22010G15KT 15/12 A298 RMK A01 T01490117  RH  081%=      5-min Rain = 0
KAM1 201726Z 22010KT 15/12 A298 RMK A01 T01490118  RH  081%=      5-min Rain = 0
KAM1 201727Z 22009KT 15/12 A298 RMK A01 T01480119  RH  082%=      5-min Rain = 0
KAM1 201728Z 22013KT 15/12 A298 RMK A01 T01480119  RH  083%=      5-min Rain = 0
KAM1 201729Z 22013KT 15/12 A298 RMK A01 T01480117  RH  082%=      5-min Rain = 0
KAM1 201730Z 22014KT 15/12 A298 RMK A01 T01480116  RH  081%=      5-min Rain = 0
KAM1 201731Z 23012KT 15/12 A2981 RMK A01 T01480117  RH  082%=      5-min Rain = 0
KAM1 201732Z 23014KT 15/12 A298 RMK A01 T01470120  RH  083%=      5-min Rain = 0
KAM1 201733Z 24014KT 15/12 A298 RMK A01 T01470119  RH  084%=      5-min Rain = 0
KAM1 201734Z 24015KT 15/12 A298 RMK A01 T01460121  RH  085%=      5-min Rain = 0.01
KAM1 201735Z 23014KT 15/12 A298 RMK A01 T01450122  RH  086%=      5-min Rain = 0.01
KAM1 201736Z 24015KT 14/12 A298 RMK A01 T01430124  RH  088%=      5-min Rain = 0.01
KAM1 201737Z 24014KT 14/12 A298 RMK A01 T01420124  RH  089%=      5-min Rain = 0
KAM1 201738Z 24013KT 14/13 A2981 RMK A01 T01410126  RH  090%=      5-min Rain = 0
KAM1 201739Z 23015KT 14/13 A2981 RMK A01 T01400126  RH  091%=      5-min Rain = 0
KAM1 201740Z 23014KT 14/13 A2981 RMK A01 T01400126  RH  091%=      5-min Rain = 0.01
KAM1 201741Z 23014KT 14/13 A2981 RMK A01 T01400127  RH  092%=      5-min Rain = 0
KAM1 201742Z 23012KT 14/13 A2981 RMK A01 T01400128  RH  093%=      5-min Rain = 0.01
KAM1 201743Z 23011KT 14/13 A298 RMK A01 T01400129  RH  093%=      5-min Rain = 0
KAM1 201744Z 23011KT 14/13 A298 RMK A01 T01390131  RH  094%=      5-min Rain = 0.01
KAM1 201745Z 23011KT 14/13 A298 RMK A01 T01390132  RH  096%=      5-min Rain = 0
KAM1 201746Z 23010KT 14/13 A298 RMK A01 T01390133  RH  096%=      5-min Rain = 0
KAM1 201747Z 23010KT 14/13 A298 RMK A01 T01380134  RH  097%=      5-min Rain = 0
KAM1 201748Z 24009KT 14/14 A298 RMK A01 T01380135  RH  098%=      5-min Rain = 0
KAM1 201749Z 24010KT 14/14 A298 RMK A01 T01380136  RH  099%=      5-min Rain = 0
KAM1 201750Z 24010KT 14/14 A298 RMK A01 T01370135  RH  099%=      5-min Rain = 0
KAM1 201751Z 24010KT 14/14 A2981 RMK A01 T01370135  RH  099%=      5-min Rain = 0.01
KAM1 201752Z 23010KT 14/14 A2981 RMK A01 T01370136  RH  099%=      5-min Rain = 0
KAM1 201753Z 23011KT 14/14 A2982 RMK A01 T01370137  RH  100%=      5-min Rain = 0.01
KAM1 201754Z 23011KT 14/14 A2981 RMK A01 T01370137  RH  100%=      5-min Rain = 0
KAM1 201755Z 24012KT 14/14 A2981 RMK A01 T01370137  RH  100%=      5-min Rain = 0.01
KAM1 201756Z 25011KT 14/14 A298 RMK A01 T01370137  RH  100%=      5-min Rain = 0
KAM1 201757Z 25012KT 14/14 A298 RMK A01 T01370137  RH  100%=      5-min Rain = 0.01
KAM1 201758Z 24016KT 14/14 A2981 RMK A01 T01370136  RH  099%=      5-min Rain = 0
KAM1 201759Z 25013KT 14/14 A2981 RMK A01 T01380136  RH  099%=      5-min Rain = 0
KAM1 201800Z 24014KT 14/14 A2981 RMK A01 T01390136  RH  098%=      5-min Rain = 0.01
KAM1 201801Z 24015KT 14/14 A2981 RMK A01 T01380136  RH  098%=      5-min Rain = 0
KAM1 201802Z 24018G27KT 14/14 A2982 RMK A01 T01390135  RH  098%=      5-min Rain = 0
KAM1 201803Z 24019KT 14/13 A2982 RMK A01 T01390134  RH  097%=      5-min Rain = 0
KAM1 201804Z 24021KT 14/13 A2983 RMK A01 T01390134  RH  097%=      5-min Rain = 0
KAM1 201805Z 23021KT 14/13 A2983 RMK A01 T01390133  RH  096%=      5-min Rain = 0
KAM1 201806Z 23018G25KT 14/13 A2983 RMK A01 T01390132  RH  096%=      5-min Rain = 0.01
KAM1 201807Z 24017G23KT 14/13 A2983 RMK A01 T01390133  RH  096%=      5-min Rain = 0
KAM1 201808Z 24017G23KT 14/13 A2983 RMK A01 T01390133  RH  097%=      5-min Rain = 0
KAM1 201809Z 24017G22KT 14/13 A2982 RMK A01 T01380133  RH  097%=      5-min Rain = 0.01
KAM1 201810Z 23015KT 14/13 A2982 RMK A01 T01370134  RH  098%=      5-min Rain = 0
KAM1 201816Z 23015G20KT 14/14 A2984 RMK A01 T01350135  RH  100%=      5-min Rain = 0
KAM1 201817Z 23015KT 14/14 A2984 RMK A01 T01350135  RH  100%=      5-min Rain = 0
KAM1 201818Z 23014KT 13/13 A2983 RMK A01 T01340134  RH  100%=      5-min Rain = 0
KAM1 201819Z 23017KT 13/13 A2983 RMK A01 T01340134  RH  100%=      5-min Rain = 0.01
KAM1 201820Z 23017KT 13/13 A2982 RMK A01 T01340134  RH  100%=      5-min Rain = 0
KAM1 201821Z 23013KT 13/13 A2982 RMK A01 T01340134  RH  100%=      5-min Rain = 0
KAM1 201822Z 23013KT 13/13 A2981 RMK A01 T01340134  RH  100%=      5-min Rain = 0
KAM1 201823Z 23013KT 13/13 A2981 RMK A01 T01340134  RH  100%=      5-min Rain = 0
KAM1 201824Z 23012KT 13/13 A2981 RMK A01 T01340134  RH  100%=      5-min Rain = 0
KAM1 201825Z 23015KT 13/13 A2981 RMK A01 T01330133  RH  100%=      5-min Rain = 0.01
KAM1 201826Z 23017KT 13/13 A2982 RMK A01 T01330133  RH  100%=      5-min Rain = 0
KAM1 201827Z 24016KT 13/13 A2982 RMK A01 T01340134  RH  100%=      5-min Rain = 0
KAM1 201828Z 23018KT 14/14 A2981 RMK A01 T01350135  RH  100%=      5-min Rain = 0
KAM1 201829Z 24015KT 14/14 A2981 RMK A01 T01360136  RH  100%=      5-min Rain = 0
KAM1 201830Z 24015KT 14/14 A2981 RMK A01 T01370137  RH  100%=      5-min Rain = 0
KAM1 201831Z 23012G18KT 14/14 A2981 RMK A01 T01380138  RH  100%=      5-min Rain = 0
KAM1 201832Z 23013KT 14/14 A298 RMK A01 T01390139  RH  100%=      5-min Rain = 0
KAM1 201833Z 23013KT 14/14 A298 RMK A01 T01400140  RH  100%=      5-min Rain = 0
KAM1 201834Z 23016KT 14/14 A298 RMK A01 T01400140  RH  100%=      5-min Rain = 0
KAM1 201835Z 23015KT 14/14 A298 RMK A01 T01410141  RH  100%=      5-min Rain = 0
KAM1 201836Z 23014KT 14/14 A298 RMK A01 T01410141  RH  100%=      5-min Rain = 0
KAM1 201837Z 23018G24KT 14/14 A298 RMK A01 T01410142  RH  100%=      5-min Rain = 0
KAM1 201838Z 23018KT 14/14 A298 RMK A01 T01420142  RH  100%=      5-min Rain = 0
KAM1 201839Z 23017KT 14/14 A298 RMK A01 T01420142  RH  100%=      5-min Rain = 0
KAM1 201840Z 23016KT 14/14 A298 RMK A01 T01420142  RH  100%=      5-min Rain = 0
KAM1 201841Z 23014KT 14/14 A298 RMK A01 T01420142  RH  100%=      5-min Rain = 0
KAM1 201842Z 23016KT 14/14 A298 RMK A01 T01420142  RH  100%=      5-min Rain = 0
KAM1 201843Z 23015KT 14/14 A298 RMK A01 T01420142  RH  100%=      5-min Rain = 0
KAM1 201844Z 23014KT 14/14 A298 RMK A01 T01430143  RH  100%=      5-min Rain = 0
KAM1 201845Z 23015KT 14/14 A298 RMK A01 T01430143  RH  100%=      5-min Rain = 0
KAM1 201846Z 23016KT 14/14 A298 RMK A01 T01430143  RH  100%=      5-min Rain = 0
KAM1 201847Z 23018KT 14/14 A298 RMK A01 T01440144  RH  100%=      5-min Rain = 0
KAM1 201848Z 23016KT 14/14 A298 RMK A01 T01440144  RH  100%=      5-min Rain = 0
KAM1 201849Z 23016KT 15/15 A298 RMK A01 T01450145  RH  100%=      5-min Rain = 0
KAM1 201850Z 23014KT 15/15 A2979 RMK A01 T01450145  RH  100%=      5-min Rain = 0
KAM1 201851Z 23015KT 15/15 A298 RMK A01 T01450145  RH  100%=      5-min Rain = 0
KAM1 201852Z 23018KT 15/15 A298 RMK A01 T01450145  RH  100%=      5-min Rain = 0
KAM1 201853Z 23015KT 15/14 A298 RMK A01 T01450144  RH  100%=      5-min Rain = 0
KAM1 201854Z 23015KT 15/15 A298 RMK A01 T01450145  RH  100%=      5-min Rain = 0
KAM1 201855Z 23014KT 15/15 A298 RMK A01 T01450145  RH  100%=      5-min Rain = 0
KAM1 201856Z 23014G19KT 15/15 A298 RMK A01 T01450146  RH  100%=      5-min Rain = 0
KAM1 201857Z 24018G23KT 15/15 A298 RMK A01 T01470146  RH  100%=      5-min Rain = 0
KAM1 201858Z 23018KT 15/15 A298 RMK A01 T01470146  RH  099%=      5-min Rain = 0
KAM1 201859Z 23016KT 15/15 A2979 RMK A01 T01470146  RH  099%=      5-min Rain = 0
KAM1 201900Z 23017KT 15/15 A2979 RMK A01 T01480145  RH  098%=      5-min Rain = 0
KAM1 201901Z 23017KT 15/15 A2979 RMK A01 T01480146  RH  099%=      5-min Rain = 0
KAM1 201902Z 24017G22KT 15/14 A2979 RMK A01 T01480144  RH  098%=      5-min Rain = 0
KAM1 201903Z 23016G21KT 15/15 A2979 RMK A01 T01480145  RH  098%=      5-min Rain = 0
KAM1 201904Z 23015KT 15/15 A2979 RMK A01 T01480145  RH  098%=      5-min Rain = 0
KAM1 201905Z 24016KT 15/15 A2979 RMK A01 T01490146  RH  098%=      5-min Rain = 0
KAM1 201906Z 24019KT 15/14 A2979 RMK A01 T01490144  RH  097%=      5-min Rain = 0
KAM1 201907Z 24014G19KT 15/15 A2979 RMK A01 T01490145  RH  098%=      5-min Rain = 0
KAM1 201908Z 23015KT 15/15 A2979 RMK A01 T01500148  RH  099%=      5-min Rain = 0
KAM1 201909Z 23013KT 15/15 A2979 RMK A01 T01510148  RH  098%=      5-min Rain = 0
KAM1 201910Z 24015G20KT 15/15 A2979 RMK A01 T01510147  RH  097%=      5-min Rain = 0
KAM1 201911Z 23016KT 15/15 A2979 RMK A01 T01510145  RH  096%=      5-min Rain = 0
KAM1 201912Z 24013KT 15/15 A2979 RMK A01 T01520146  RH  096%=      5-min Rain = 0
KAM1 201913Z 24014KT 15/15 A2979 RMK A01 T01540150  RH  097%=      5-min Rain = 0
KAM1 201914Z 24013KT 16/15 A2978 RMK A01 T01550149  RH  096%=      5-min Rain = 0
KAM1 201915Z 24015KT 16/15 A2978 RMK A01 T01570150  RH  096%=      5-min Rain = 0
KAM1 201916Z 24014KT 16/15 A2978 RMK A01 T01570149  RH  095%=      5-min Rain = 0
KAM1 201917Z 24012KT 16/15 A2978 RMK A01 T01570148  RH  094%=      5-min Rain = 0
KAM1 201918Z 24014KT 16/15 A2978 RMK A01 T01570147  RH  094%=      5-min Rain = 0
KAM1 201919Z 24013KT 16/15 A2978 RMK A01 T01590153  RH  096%=      5-min Rain = 0
KAM1 201920Z 25013KT 16/16 A2978 RMK A01 T01620157  RH  097%=      5-min Rain = 0
KAM1 201921Z 25013KT 16/15 A2978 RMK A01 T01640154  RH  094%=      5-min Rain = 0
KAM1 201922Z 25014KT 17/15 A2978 RMK A01 T01650152  RH  092%=      5-min Rain = 0
KAM1 201923Z 24016KT 17/15 A2978 RMK A01 T01650146  RH  088%=      5-min Rain = 0
KAM1 201924Z 24015KT 17/15 A2978 RMK A01 T01650147  RH  089%=      5-min Rain = 0
KAM1 201925Z 24017KT 17/14 A2978 RMK A01 T01650144  RH  087%=      5-min Rain = 0
KAM1 201926Z 24015KT 17/14 A2978 RMK A01 T01650143  RH  087%=      5-min Rain = 0
KAM1 201927Z 24014KT 17/14 A2978 RMK A01 T01650142  RH  086%=      5-min Rain = 0
KAM1 201928Z 24014KT 17/14 A2978 RMK A01 T01650143  RH  087%=      5-min Rain = 0
KAM1 201929Z 25013G18KT 17/15 A2978 RMK A01 T01660148  RH  089%=      5-min Rain = 0
KAM1 201930Z 26014KT 17/14 A2977 RMK A01 T01670144  RH  086%=      5-min Rain = 0
KAM1 201931Z 25015KT 17/14 A2977 RMK A01 T01680144  RH  086%=      5-min Rain = 0
KAM1 201932Z 25014KT 17/14 A2977 RMK A01 T01670141  RH  085%=      5-min Rain = 0
KAM1 201933Z 25013KT 17/14 A2977 RMK A01 T01670141  RH  084%=      5-min Rain = 0
KAM1 201934Z 26012KT 17/14 A2977 RMK A01 T01680142  RH  085%=      5-min Rain = 0
KAM1 201935Z 26013KT 17/14 A2977 RMK A01 T01690144  RH  085%=      5-min Rain = 0
KAM1 201936Z 25013KT 17/14 A2977 RMK A01 T01700143  RH  084%=      5-min Rain = 0
KAM1 201937Z 25014KT 17/14 A2977 RMK A01 T01710139  RH  081%=      5-min Rain = 0
KAM1 201938Z 25015KT 17/14 A2977 RMK A01 T01720138  RH  080%=      5-min Rain = 0
KAM1 201939Z 25016KT 17/14 A2977 RMK A01 T01720135  RH  079%=      5-min Rain = 0
KAM1 201940Z 25018KT 17/13 A2977 RMK A01 T01710134  RH  079%=      5-min Rain = 0
KAM1 201941Z 26014KT 17/13 A2977 RMK A01 T01710129  RH  077%=      5-min Rain = 0
KAM1 201942Z 25014KT 17/13 A2977 RMK A01 T01700133  RH  079%=      5-min Rain = 0
KAM1 201943Z 25015KT 17/14 A2977 RMK A01 T01710135  RH  079%=      5-min Rain = 0
KAM1 201944Z 25017KT 17/13 A2977 RMK A01 T01730133  RH  077%=      5-min Rain = 0
KAM1 201945Z 26012KT 17/13 A2977 RMK A01 T01730130  RH  076%=      5-min Rain = 0
KAM1 201946Z 26014KT 17/13 A2977 RMK A01 T01730129  RH  076%=      5-min Rain = 0
KAM1 201947Z 26013KT 17/13 A2977 RMK A01 T01740129  RH  075%=      5-min Rain = 0
KAM1 201948Z 26014KT 18/13 A2977 RMK A01 T01750125  RH  072%=      5-min Rain = 0
KAM1 201949Z 26014KT 18/12 A2976 RMK A01 T01760123  RH  071%=      5-min Rain = 0
KAM1 201950Z 26013KT 18/12 A2976 RMK A01 T01760120  RH  070%=      5-min Rain = 0
KAM1 201951Z 26013KT 18/12 A2976 RMK A01 T01760119  RH  069%=      5-min Rain = 0
KAM1 201952Z 26011KT 18/12 A2976 RMK A01 T01760123  RH  071%=      5-min Rain = 0
KAM1 201953Z 25014KT 18/12 A2976 RMK A01 T01780122  RH  070%=      5-min Rain = 0
KAM1 201954Z 25014KT 18/12 A2976 RMK A01 T01780121  RH  069%=      5-min Rain = 0
KAM1 201955Z 25017KT 18/12 A2976 RMK A01 T01780119  RH  069%=      5-min Rain = 0
KAM1 201956Z 25016KT 18/12 A2976 RMK A01 T01770118  RH  068%=      5-min Rain = 0
KAM1 201957Z 25014KT 18/12 A2976 RMK A01 T01760117  RH  068%=      5-min Rain = 0
KAM1 201958Z 25013KT 18/12 A2976 RMK A01 T01760118  RH  069%=      5-min Rain = 0
KAM1 201959Z 25011KT 18/12 A2976 RMK A01 T01760119  RH  069%=      5-min Rain = 0
KAM1 202000Z 26011KT 18/12 A2976 RMK A01 T01780124  RH  070%=      5-min Rain = 0
KAM1 202001Z 24013KT 18/12 A2976 RMK A01 T01810124  RH  069%=      5-min Rain = 0
KAM1 202002Z 25015KT 18/12 A2976 RMK A01 T01820119  RH  067%=      5-min Rain = 0
KAM1 202003Z 26013KT 18/12 A2976 RMK A01 T01810119  RH  067%=      5-min Rain = 0
KAM1 202004Z 26010KT 18/12 A2976 RMK A01 T01800120  RH  068%=      5-min Rain = 0
KAM1 202005Z 26015KT 18/12 A2976 RMK A01 T01820119  RH  067%=      5-min Rain = 0
KAM1 202006Z 26015KT 18/11 A2976 RMK A01 T01820114  RH  065%=      5-min Rain = 0
KAM1 202007Z 26013KT 18/11 A2976 RMK A01 T01810114  RH  065%=      5-min Rain = 0
KAM1 202008Z 26012KT 18/12 A2976 RMK A01 T01810115  RH  065%=      5-min Rain = 0
KAM1 202009Z 26012KT 18/12 A2975 RMK A01 T01820115  RH  065%=      5-min Rain = 0
KAM1 202010Z 25014KT 18/11 A2975 RMK A01 T01810113  RH  064%=      5-min Rain = 0
KAM1 202011Z 25013KT 18/11 A2975 RMK A01 T01810114  RH  065%=      5-min Rain = 0
KAM1 202012Z 25013KT 18/11 A2975 RMK A01 T01820112  RH  064%=      5-min Rain = 0
KAM1 202013Z 25012KT 18/11 A2976 RMK A01 T01830111  RH  063%=      5-min Rain = 0
KAM1 202014Z 25013KT 18/11 A2976 RMK A01 T01820113  RH  064%=      5-min Rain = 0
KAM1 202015Z 25011KT 18/11 A2975 RMK A01 T01820114  RH  064%=      5-min Rain = 0
KAM1 202016Z 25013KT 18/11 A2975 RMK A01 T01830114  RH  064%=      5-min Rain = 0
KAM1 202017Z 25013KT 18/11 A2975 RMK A01 T01830112  RH  063%=      5-min Rain = 0
KAM1 202018Z 25011KT 18/11 A2975 RMK A01 T01840111  RH  062%=      5-min Rain = 0
KAM1 202019Z 25013KT 18/11 A2975 RMK A01 T01840111  RH  063%=      5-min Rain = 0
KAM1 202020Z 24013KT 18/11 A2975 RMK A01 T01810108  RH  062%=      5-min Rain = 0
KAM1 202021Z 24009KT 18/11 A2975 RMK A01 T01790107  RH  063%=      5-min Rain = 0
KAM1 202022Z 24010KT 18/11 A2975 RMK A01 T01800112  RH  065%=      5-min Rain = 0
KAM1 202023Z 24009KT 18/11 A2975 RMK A01 T01810111  RH  064%=      5-min Rain = 0
KAM1 202024Z 24007KT 18/11 A2975 RMK A01 T01800112  RH  064%=      5-min Rain = 0
KAM1 202025Z 23010KT 18/11 A2974 RMK A01 T01780111  RH  065%=      5-min Rain = 0
KAM1 202026Z 23011KT 18/11 A2974 RMK A01 T01770107  RH  064%=      5-min Rain = 0
KAM1 202027Z 23011KT 18/11 A2974 RMK A01 T01750107  RH  064%=      5-min Rain = 0
KAM1 202028Z 23010KT 17/11 A2974 RMK A01 T01740107  RH  065%=      5-min Rain = 0
KAM1 202029Z 22010KT 17/11 A2974 RMK A01 T01740106  RH  064%=      5-min Rain = 0
KAM1 202030Z 23009KT 18/11 A2974 RMK A01 T01750107  RH  064%=      5-min Rain = 0
KAM1 202031Z 23010KT 18/11 A2974 RMK A01 T01760105  RH  063%=      5-min Rain = 0
KAM1 202032Z 22007KT 18/11 A2974 RMK A01 T01760105  RH  063%=      5-min Rain = 0
KAM1 202033Z 22009KT 18/11 A2974 RMK A01 T01760107  RH  064%=      5-min Rain = 0
KAM1 202034Z 22010KT 18/10 A2974 RMK A01 T01770104  RH  062%=      5-min Rain = 0
KAM1 202035Z 22008KT 18/10 A2974 RMK A01 T01770104  RH  062%=      5-min Rain = 0
KAM1 202036Z 21009KT 18/11 A2974 RMK A01 T01780105  RH  062%=      5-min Rain = 0
KAM1 202037Z 22009KT 18/10 A2974 RMK A01 T01780103  RH  062%=      5-min Rain = 0
KAM1 202038Z 21010KT 18/10 A2974 RMK A01 T01780103  RH  062%=      5-min Rain = 0
KAM1 202039Z 21010KT 18/10 A2974 RMK A01 T01770103  RH  062%=      5-min Rain = 0
KAM1 202040Z 21011KT 18/10 A2974 RMK A01 T01780103  RH  062%=      5-min Rain = 0
KAM1 202041Z 21009KT 18/10 A2974 RMK A01 T01780103  RH  061%=      5-min Rain = 0
KAM1 202042Z 21009KT 18/10 A2974 RMK A01 T01800103  RH  061%=      5-min Rain = 0
KAM1 202043Z 22009KT 18/10 A2974 RMK A01 T01800103  RH  061%=      5-min Rain = 0
KAM1 202044Z 23010KT 18/10 A2974 RMK A01 T01810103  RH  060%=      5-min Rain = 0
KAM1 202045Z 22010KT 18/10 A2974 RMK A01 T01800101  RH  060%=      5-min Rain = 0
KAM1 202046Z 22011KT 18/10 A2974 RMK A01 T01800097  RH  058%=      5-min Rain = 0
KAM1 202047Z 22008KT 18/10 A2974 RMK A01 T01800097  RH  059%=      5-min Rain = 0
KAM1 202048Z 22010KT 18/10 A2974 RMK A01 T01800099  RH  059%=      5-min Rain = 0
KAM1 202049Z 23011KT 18/10 A2974 RMK A01 T01810097  RH  058%=      5-min Rain = 0
KAM1 202050Z 23012KT 18/10 A2974 RMK A01 T01810096  RH  058%=      5-min Rain = 0
KAM1 202051Z 23009KT 18/10 A2974 RMK A01 T01810096  RH  058%=      5-min Rain = 0
KAM1 202052Z 22009KT 18/10 A2974 RMK A01 T01810098  RH  058%=      5-min Rain = 0
KAM1 202053Z 22009KT 18/10 A2974 RMK A01 T01810098  RH  058%=      5-min Rain = 0
KAM1 202054Z 22009KT 18/10 A2974 RMK A01 T01820098  RH  058%=      5-min Rain = 0
KAM1 202055Z 23011KT 18/10 A2974 RMK A01 T01820098  RH  058%=      5-min Rain = 0
KAM1 202056Z 23010KT 18/10 A2974 RMK A01 T01830098  RH  058%=      5-min Rain = 0
KAM1 202057Z 22009KT 18/10 A2974 RMK A01 T01830095  RH  057%=      5-min Rain = 0
KAM1 202058Z 22009KT 18/10 A2974 RMK A01 T01830095  RH  056%=      5-min Rain = 0
KAM1 202059Z 22012KT 19/10 A2974 RMK A01 T01850095  RH  056%=      5-min Rain = 0
KAM1 202100Z 22012KT 19/10 A2974 RMK A01 T01890095  RH  054%=      5-min Rain = 0
KAM1 202101Z 22012KT 19/10 A2974 RMK A01 T01910095  RH  054%=      5-min Rain = 0
KAM1 202102Z 22012KT 19/09 A2974 RMK A01 T01900092  RH  053%=      5-min Rain = 0
KAM1 202103Z 22012G18KT 19/09 A2974 RMK A01 T01880092  RH  053%=      5-min Rain = 0
KAM1 202104Z 21013KT 19/09 A2974 RMK A01 T01870089  RH  053%=      5-min Rain = 0
KAM1 202105Z 22014KT 19/09 A2974 RMK A01 T01870089  RH  053%=      5-min Rain = 0
KAM1 202106Z 22011KT 19/09 A2974 RMK A01 T01860090  RH  053%=      5-min Rain = 0
KAM1 202107Z 22011KT 19/09 A2974 RMK A01 T01860090  RH  054%=      5-min Rain = 0
KAM1 202108Z 22011KT 19/09 A2974 RMK A01 T01850091  RH  054%=      5-min Rain = 0
KAM1 202109Z 22009KT 19/09 A2974 RMK A01 T01850093  RH  055%=      5-min Rain = 0
KAM1 202110Z 22013G18KT 19/09 A2974 RMK A01 T01850091  RH  054%=      5-min Rain = 0
KAM1 202111Z 22013KT 19/09 A2974 RMK A01 T01850087  RH  053%=      5-min Rain = 0
KAM1 202112Z 22010KT 18/09 A2974 RMK A01 T01840087  RH  053%=      5-min Rain = 0
KAM1 202113Z 22016KT 18/09 A2974 RMK A01 T01840087  RH  053%=      5-min Rain = 0
KAM1 202114Z 22015KT 19/09 A2974 RMK A01 T01850085  RH  052%=      5-min Rain = 0
KAM1 202115Z 21014KT 19/09 A2974 RMK A01 T01850086  RH  053%=      5-min Rain = 0
KAM1 202116Z 21010KT 18/09 A2974 RMK A01 T01840088  RH  053%=      5-min Rain = 0
KAM1 202117Z 20012KT 18/09 A2974 RMK A01 T01840088  RH  054%=      5-min Rain = 0
KAM1 202118Z 21014KT 18/09 A2974 RMK A01 T01840088  RH  054%=      5-min Rain = 0
KAM1 202119Z 21012KT 18/09 A2974 RMK A01 T01840088  RH  054%=      5-min Rain = 0
KAM1 202120Z 21011KT 19/09 A2974 RMK A01 T01860090  RH  054%=      5-min Rain = 0
KAM1 202121Z 21012KT 19/09 A2974 RMK A01 T01890091  RH  053%=      5-min Rain = 0
KAM1 202122Z 21012KT 19/09 A2974 RMK A01 T01890090  RH  052%=      5-min Rain = 0
KAM1 202123Z 21014G19KT 19/09 A2974 RMK A01 T01890089  RH  052%=      5-min Rain = 0
KAM1 202124Z 22013G18KT 19/09 A2974 RMK A01 T01880091  RH  053%=      5-min Rain = 0
KAM1 202125Z 21013G18KT 19/09 A2974 RMK A01 T01870089  RH  053%=      5-min Rain = 0
KAM1 202126Z 21014KT 19/09 A2974 RMK A01 T01870088  RH  053%=      5-min Rain = 0
KAM1 202127Z 21014KT 19/09 A2974 RMK A01 T01860088  RH  053%=      5-min Rain = 0
KAM1 202128Z 21014KT 19/09 A2974 RMK A01 T01860090  RH  053%=      5-min Rain = 0
KAM1 202129Z 20015KT 19/09 A2974 RMK A01 T01860089  RH  053%=      5-min Rain = 0
KAM1 202130Z 20011KT 19/09 A2974 RMK A01 T01870090  RH  053%=      5-min Rain = 0
KAM1 202131Z 20012G19KT 19/09 A2974 RMK A01 T01880094  RH  054%=      5-min Rain = 0
KAM1 202132Z 20014KT 19/09 A2974 RMK A01 T01890093  RH  054%=      5-min Rain = 0
KAM1 202133Z 21013KT 19/09 A2975 RMK A01 T01880094  RH  054%=      5-min Rain = 0
KAM1 202134Z 21015KT 19/09 A2975 RMK A01 T01880093  RH  054%=      5-min Rain = 0
KAM1 202135Z 21014KT 19/09 A2975 RMK A01 T01870093  RH  054%=      5-min Rain = 0
KAM1 202136Z 21012KT 19/09 A2975 RMK A01 T01870093  RH  055%=      5-min Rain = 0
KAM1 202137Z 22014G21KT 19/09 A2974 RMK A01 T01860094  RH  055%=      5-min Rain = 0
KAM1 202138Z 21015KT 19/09 A2974 RMK A01 T01870094  RH  055%=      5-min Rain = 0
KAM1 202139Z 21015KT 19/09 A2975 RMK A01 T01900094  RH  054%=      5-min Rain = 0
KAM1 202140Z 20012G18KT 19/10 A2975 RMK A01 T01930096  RH  053%=      5-min Rain = 0
KAM1 202141Z 20016KT 20/10 A2975 RMK A01 T01960097  RH  053%=      5-min Rain = 0
KAM1 202142Z 20015G20KT 20/10 A2975 RMK A01 T01970096  RH  052%=      5-min Rain = 0
KAM1 202143Z 20014KT 20/10 A2975 RMK A01 T01970097  RH  052%=      5-min Rain = 0
KAM1 202144Z 20012G20KT 20/10 A2975 RMK A01 T01980097  RH  052%=      5-min Rain = 0
KAM1 202145Z 21016G21KT 20/10 A2975 RMK A01 T01990097  RH  052%=      5-min Rain = 0
KAM1 202146Z 22018KT 20/10 A2975 RMK A01 T02000097  RH  051%=      5-min Rain = 0
KAM1 202147Z 21014G19KT 20/10 A2975 RMK A01 T02000096  RH  051%=      5-min Rain = 0
KAM1 202148Z 21019G25KT 20/10 A2975 RMK A01 T02000096  RH  051%=      5-min Rain = 0
KAM1 202149Z 21016KT 20/09 A2975 RMK A01 T01990093  RH  050%=      5-min Rain = 0
KAM1 202150Z 21017KT 20/09 A2975 RMK A01 T01980094  RH  051%=      5-min Rain = 0
KAM1 202151Z 21018KT 20/09 A2975 RMK A01 T01980093  RH  051%=      5-min Rain = 0
KAM1 202152Z 21017KT 20/09 A2975 RMK A01 T01970094  RH  051%=      5-min Rain = 0
KAM1 202153Z 21015KT 20/09 A2975 RMK A01 T01960094  RH  052%=      5-min Rain = 0
KAM1 202154Z 21017KT 20/09 A2975 RMK A01 T01960093  RH  051%=      5-min Rain = 0
KAM1 202155Z 21018KT 20/09 A2975 RMK A01 T01970092  RH  051%=      5-min Rain = 0
KAM1 202156Z 21017KT 20/09 A2975 RMK A01 T01970092  RH  051%=      5-min Rain = 0
KAM1 202157Z 21013KT 20/09 A2975 RMK A01 T01960093  RH  051%=      5-min Rain = 0
KAM1 202158Z 21014G20KT 20/09 A2975 RMK A01 T01960094  RH  052%=      5-min Rain = 0
KAM1 202159Z 21017G22KT 20/09 A2976 RMK A01 T01970094  RH  051%=      5-min Rain = 0
KAM1 202200Z 22017KT 20/09 A2976 RMK A01 T01970093  RH  051%=      5-min Rain = 0
KAM1 202201Z 21017KT 20/09 A2976 RMK A01 T01960093  RH  051%=      5-min Rain = 0
KAM1 202202Z 22018KT 20/09 A2976 RMK A01 T01950093  RH  052%=      5-min Rain = 0
KAM1 202203Z 23015G20KT 20/09 A2976 RMK A01 T01950094  RH  052%=      5-min Rain = 0
KAM1 202204Z 23018KT 20/09 A2976 RMK A01 T01950094  RH  052%=      5-min Rain = 0
KAM1 202205Z 22016KT 20/09 A2976 RMK A01 T01960094  RH  052%=      5-min Rain = 0
KAM1 202206Z 22013KT 20/10 A2976 RMK A01 T01950095  RH  052%=      5-min Rain = 0
KAM1 202207Z 22013G18KT 20/10 A2976 RMK A01 T01950096  RH  053%=      5-min Rain = 0
KAM1 202208Z 22015KT 20/10 A2976 RMK A01 T01960097  RH  053%=      5-min Rain = 0
KAM1 202209Z 21012KT 20/10 A2976 RMK A01 T01960097  RH  053%=      5-min Rain = 0
KAM1 202210Z 21016KT 20/10 A2976 RMK A01 T01960097  RH  053%=      5-min Rain = 0
KAM1 202211Z 22016KT 20/10 A2976 RMK A01 T01960096  RH  053%=      5-min Rain = 0
KAM1 202212Z 21013KT 20/10 A2976 RMK A01 T01950097  RH  053%=      5-min Rain = 0
KAM1 202213Z 21010KT 20/10 A2976 RMK A01 T01950099  RH  054%=      5-min Rain = 0
KAM1 202214Z 21010KT 20/10 A2976 RMK A01 T01950100  RH  054%=      5-min Rain = 0
KAM1 202215Z 20013KT 20/10 A2976 RMK A01 T01950100  RH  054%=      5-min Rain = 0
KAM1 202216Z 21015KT 20/10 A2976 RMK A01 T01960100  RH  054%=      5-min Rain = 0
KAM1 202217Z 22016KT 20/10 A2976 RMK A01 T01950099  RH  054%=      5-min Rain = 0
KAM1 202218Z 22015KT 19/10 A2976 RMK A01 T01940098  RH  054%=      5-min Rain = 0
KAM1 202219Z 21014KT 19/10 A2976 RMK A01 T01940097  RH  054%=      5-min Rain = 0
KAM1 202220Z 21017KT 19/10 A2976 RMK A01 T01930098  RH  054%=      5-min Rain = 0
KAM1 202221Z 21013KT 19/10 A2976 RMK A01 T01930098  RH  054%=      5-min Rain = 0
KAM1 202222Z 21015KT 19/10 A2976 RMK A01 T01930098  RH  054%=      5-min Rain = 0
KAM1 202223Z 20017KT 19/10 A2976 RMK A01 T01930099  RH  054%=      5-min Rain = 0
KAM1 202224Z 21015KT 19/10 A2976 RMK A01 T01920099  RH  055%=      5-min Rain = 0
KAM1 202225Z 21015KT 19/10 A2976 RMK A01 T01920100  RH  055%=      5-min Rain = 0
KAM1 202226Z 21013KT 19/10 A2976 RMK A01 T01920100  RH  055%=      5-min Rain = 0
KAM1 202227Z 21014KT 19/10 A2976 RMK A01 T01920100  RH  055%=      5-min Rain = 0
KAM1 202228Z 21014KT 19/10 A2976 RMK A01 T01920100  RH  055%=      5-min Rain = 0
KAM1 202229Z 21012KT 19/10 A2976 RMK A01 T01920101  RH  055%=      5-min Rain = 0
KAM1 202230Z 20011KT 19/10 A2976 RMK A01 T01910101  RH  056%=      5-min Rain = 0
KAM1 202231Z 20012KT 19/10 A2976 RMK A01 T01910102  RH  056%=      5-min Rain = 0
KAM1 202232Z 20013KT 19/10 A2976 RMK A01 T01910102  RH  056%=      5-min Rain = 0
KAM1 202233Z 20011G16KT 19/10 A2976 RMK A01 T01900102  RH  057%=      5-min Rain = 0
KAM1 202234Z 21010KT 19/10 A2976 RMK A01 T01900103  RH  057%=      5-min Rain = 0
KAM1 202235Z 21010KT 19/10 A2976 RMK A01 T01900103  RH  057%=      5-min Rain = 0
KAM1 202236Z 21014KT 19/10 A2976 RMK A01 T01900102  RH  057%=      5-min Rain = 0
KAM1 202237Z 21010KT 19/10 A2976 RMK A01 T01900103  RH  057%=      5-min Rain = 0
KAM1 202238Z 21010KT 19/10 A2976 RMK A01 T01900104  RH  057%=      5-min Rain = 0
KAM1 202239Z 20010KT 19/10 A2976 RMK A01 T01890104  RH  057%=      5-min Rain = 0
KAM1 202240Z 20011KT 19/10 A2976 RMK A01 T01890104  RH  058%=      5-min Rain = 0
KAM1 202241Z 19011KT 19/10 A2976 RMK A01 T01890104  RH  058%=      5-min Rain = 0
KAM1 202242Z 20011KT 19/10 A2976 RMK A01 T01890104  RH  058%=      5-min Rain = 0
KAM1 202243Z 20010KT 19/10 A2976 RMK A01 T01880104  RH  058%=      5-min Rain = 0
KAM1 202244Z 20011KT 19/10 A2976 RMK A01 T01880104  RH  058%=      5-min Rain = 0
KAM1 202245Z 20011KT 19/10 A2976 RMK A01 T01870104  RH  058%=      5-min Rain = 0
KAM1 202246Z 20012KT 19/10 A2976 RMK A01 T01870104  RH  058%=      5-min Rain = 0
KAM1 202247Z 19010KT 19/10 A2976 RMK A01 T01870104  RH  058%=      5-min Rain = 0
KAM1 202248Z 20012KT 19/10 A2976 RMK A01 T01870104  RH  059%=      5-min Rain = 0
KAM1 202249Z 20010KT 19/10 A2976 RMK A01 T01860104  RH  059%=      5-min Rain = 0
KAM1 202250Z 20010KT 19/11 A2976 RMK A01 T01860105  RH  059%=      5-min Rain = 0
KAM1 202251Z 21011KT 19/10 A2977 RMK A01 T01860104  RH  059%=      5-min Rain = 0
KAM1 202252Z 20010KT 19/10 A2977 RMK A01 T01860104  RH  059%=      5-min Rain = 0
KAM1 202253Z 20008KT 19/10 A2977 RMK A01 T01860104  RH  059%=      5-min Rain = 0
KAM1 202254Z 20009KT 19/11 A2977 RMK A01 T01860105  RH  059%=      5-min Rain = 0
KAM1 202255Z 20009KT 19/11 A2977 RMK A01 T01850105  RH  059%=      5-min Rain = 0
KAM1 202256Z 20011KT 19/11 A2977 RMK A01 T01850105  RH  060%=      5-min Rain = 0
KAM1 202257Z 20011KT 19/11 A2977 RMK A01 T01850105  RH  060%=      5-min Rain = 0
KAM1 202258Z 20010KT 19/11 A2977 RMK A01 T01850105  RH  060%=      5-min Rain = 0
KAM1 202259Z 20010KT 19/11 A2977 RMK A01 T01850105  RH  060%=      5-min Rain = 0
KAM1 202300Z 20009KT 18/11 A2977 RMK A01 T01840105  RH  060%=      5-min Rain = 0
KAM1 202301Z 20010KT 18/11 A2977 RMK A01 T01840106  RH  060%=      5-min Rain = 0
KAM1 202302Z 20007KT 18/11 A2977 RMK A01 T01830106  RH  061%=      5-min Rain = 0
KAM1 202303Z 20009KT 18/11 A2977 RMK A01 T01830106  RH  061%=      5-min Rain = 0
KAM1 202304Z 20008KT 18/11 A2977 RMK A01 T01820106  RH  061%=      5-min Rain = 0
KAM1 202305Z 19008KT 18/11 A2977 RMK A01 T01820107  RH  061%=      5-min Rain = 0
KAM1 202306Z 19009KT 18/11 A2977 RMK A01 T01820107  RH  062%=      5-min Rain = 0
KAM1 202307Z 19007KT 18/11 A2977 RMK A01 T01810107  RH  062%=      5-min Rain = 0
KAM1 202308Z 19008KT 18/11 A2977 RMK A01 T01800108  RH  063%=      5-min Rain = 0
KAM1 202309Z 19010KT 18/11 A2977 RMK A01 T01790108  RH  063%=      5-min Rain = 0
KAM1 202310Z 19008KT 18/11 A2977 RMK A01 T01790108  RH  063%=      5-min Rain = 0
KAM1 202311Z 19008KT 18/11 A2977 RMK A01 T01780108  RH  063%=      5-min Rain = 0
KAM1 202312Z 19008KT 18/11 A2977 RMK A01 T01780108  RH  064%=      5-min Rain = 0
KAM1 202313Z 19009KT 18/11 A2977 RMK A01 T01770108  RH  064%=      5-min Rain = 0
KAM1 202314Z 18008KT 18/11 A2977 RMK A01 T01760108  RH  064%=      5-min Rain = 0
KAM1 202315Z 18008KT 18/11 A2977 RMK A01 T01760108  RH  065%=      5-min Rain = 0
KAM1 202316Z 18008KT 18/11 A2977 RMK A01 T01750108  RH  065%=      5-min Rain = 0
KAM1 202317Z 18008KT 17/11 A2978 RMK A01 T01740108  RH  065%=      5-min Rain = 0
KAM1 202318Z 18009KT 17/11 A2978 RMK A01 T01730108  RH  066%=      5-min Rain = 0
KAM1 202319Z 19009KT 17/11 A2978 RMK A01 T01730109  RH  066%=      5-min Rain = 0
KAM1 202320Z 18009KT 17/11 A2978 RMK A01 T01720109  RH  066%=      5-min Rain = 0
KAM1 202321Z 18008KT 17/11 A2978 RMK A01 T01710109  RH  067%=      5-min Rain = 0
KAM1 202322Z 18008KT 17/11 A2978 RMK A01 T01700108  RH  067%=      5-min Rain = 0
KAM1 202323Z 18009KT 17/11 A2978 RMK A01 T01690108  RH  067%=      5-min Rain = 0
KAM1 202324Z 18009KT 17/11 A2978 RMK A01 T01690109  RH  068%=      5-min Rain = 0
KAM1 202325Z 18009KT 17/11 A2978 RMK A01 T01690109  RH  068%=      5-min Rain = 0
KAM1 202326Z 18009KT 17/11 A2978 RMK A01 T01680109  RH  068%=      5-min Rain = 0
KAM1 202327Z 18009KT 17/11 A2978 RMK A01 T01680109  RH  068%=      5-min Rain = 0
KAM1 202328Z 18008KT 17/11 A2978 RMK A01 T01670109  RH  068%=      5-min Rain = 0
KAM1 202329Z 18008KT 17/11 A2978 RMK A01 T01670109  RH  069%=      5-min Rain = 0
KAM1 202330Z 18008KT 17/11 A2978 RMK A01 T01660108  RH  069%=      5-min Rain = 0
KAM1 202331Z 18008KT 17/11 A2978 RMK A01 T01650108  RH  069%=      5-min Rain = 0
KAM1 202332Z 18007KT 17/11 A2978 RMK A01 T01650108  RH  069%=      5-min Rain = 0
KAM1 202333Z 18008KT 16/11 A2978 RMK A01 T01640108  RH  069%=      5-min Rain = 0
KAM1 202334Z 18008KT 16/11 A2978 RMK A01 T01620107  RH  070%=      5-min Rain = 0
KAM1 202335Z 18008KT 16/11 A2978 RMK A01 T01610107  RH  070%=      5-min Rain = 0
KAM1 202336Z 18008KT 16/11 A2978 RMK A01 T01610107  RH  070%=      5-min Rain = 0
KAM1 202337Z 18009KT 16/11 A2978 RMK A01 T01610107  RH  070%=      5-min Rain = 0
KAM1 202338Z 18009KT 16/11 A2978 RMK A01 T01610106  RH  070%=      5-min Rain = 0
KAM1 202339Z 18009KT 16/11 A2978 RMK A01 T01600106  RH  070%=      5-min Rain = 0
KAM1 202340Z 18009KT 16/11 A2978 RMK A01 T01600105  RH  070%=      5-min Rain = 0
KAM1 202341Z 18008KT 16/11 A2978 RMK A01 T01590105  RH  070%=      5-min Rain = 0
KAM1 202342Z 18008KT 16/10 A2978 RMK A01 T01580104  RH  070%=      5-min Rain = 0
KAM1 202343Z 18009KT 16/10 A2978 RMK A01 T01580104  RH  070%=      5-min Rain = 0
KAM1 202344Z 18009KT 16/10 A2978 RMK A01 T01580103  RH  070%=      5-min Rain = 0
KAM1 202345Z 18008KT 16/10 A2978 RMK A01 T01580103  RH  070%=      5-min Rain = 0
KAM1 202346Z 19009KT 16/10 A2978 RMK A01 T01570103  RH  070%=      5-min Rain = 0
KAM1 202347Z 18008KT 16/10 A2978 RMK A01 T01580102  RH  070%=      5-min Rain = 0
KAM1 202348Z 18008KT 16/10 A2978 RMK A01 T01580103  RH  070%=      5-min Rain = 0
KAM1 202349Z 18008KT 16/10 A2978 RMK A01 T01570102  RH  070%=      5-min Rain = 0
KAM1 202350Z 18009KT 16/10 A2978 RMK A01 T01570102  RH  070%=      5-min Rain = 0
KAM1 202351Z 19008KT 16/10 A2978 RMK A01 T01570101  RH  069%=      5-min Rain = 0
KAM1 202352Z 19008KT 16/10 A2979 RMK A01 T01570101  RH  069%=      5-min Rain = 0
KAM1 202353Z 19008KT 16/10 A2979 RMK A01 T01560101  RH  070%=      5-min Rain = 0
KAM1 202354Z 19008KT 16/10 A2979 RMK A01 T01560100  RH  070%=      5-min Rain = 0
KAM1 202355Z 19007KT 16/10 A2979 RMK A01 T01550101  RH  070%=      5-min Rain = 0
KAM1 202356Z 19008KT 16/10 A2979 RMK A01 T01550100  RH  070%=      5-min Rain = 0
KAM1 202357Z 19008KT 16/10 A2979 RMK A01 T01550101  RH  070%=      5-min Rain = 0
KAM1 202358Z 19009KT 15/10 A2979 RMK A01 T01540100  RH  070%=      5-min Rain = 0
KAM1 202359Z 19008KT 15/10 A2979 RMK A01 T01540101  RH  070%=      5-min Rain = 0
KAM1 210000Z 19009KT 15/10 A2979 RMK A01 T01540100  RH  070%=      5-min Rain = 0
KAM1 210001Z 19008KT 15/10 A2979 RMK A01 T01540100  RH  070%=      5-min Rain = 0
KAM1 210002Z 19008KT 15/10 A2979 RMK A01 T01530100  RH  071%=      5-min Rain = 0
KAM1 210003Z 19009KT 15/10 A2979 RMK A01 T01530100  RH  071%=      5-min Rain = 0
KAM1 210004Z 19009KT 15/10 A2979 RMK A01 T01520100  RH  071%=      5-min Rain = 0
KAM1 210005Z 19009KT 15/10 A2979 RMK A01 T01520100  RH  071%=      5-min Rain = 0
KAM1 210006Z 19009KT 15/10 A2979 RMK A01 T01520100  RH  071%=      5-min Rain = 0
KAM1 210007Z 19008KT 15/10 A2979 RMK A01 T01510100  RH  071%=      5-min Rain = 0
KAM1 210008Z 19009KT 15/10 A2979 RMK A01 T01510100  RH  071%=      5-min Rain = 0
KAM1 210009Z 19008KT 15/10 A2979 RMK A01 T01510100  RH  071%=      5-min Rain = 0
KAM1 210010Z 19008KT 15/10 A2979 RMK A01 T01510100  RH  072%=      5-min Rain = 0
KAM1 210011Z 19008KT 15/10 A2979 RMK A01 T01500099  RH  072%=      5-min Rain = 0
KAM1 210012Z 19008KT 15/10 A2979 RMK A01 T01500099  RH  072%=      5-min Rain = 0
KAM1 210013Z 19008KT 15/10 A298 RMK A01 T01490099  RH  072%=      5-min Rain = 0
KAM1 210014Z 19008KT 15/10 A298 RMK A01 T01490099  RH  072%=      5-min Rain = 0
KAM1 210015Z 19008KT 15/10 A298 RMK A01 T01480098  RH  072%=      5-min Rain = 0
KAM1 210016Z 19008KT 15/10 A298 RMK A01 T01480098  RH  072%=      5-min Rain = 0
KAM1 210017Z 19008KT 15/10 A298 RMK A01 T01470098  RH  072%=      5-min Rain = 0
KAM1 210018Z 19008KT 15/10 A298 RMK A01 T01470098  RH  072%=      5-min Rain = 0
KAM1 210019Z 20007KT 15/10 A298 RMK A01 T01470098  RH  072%=      5-min Rain = 0
KAM1 210020Z 20007KT 15/10 A298 RMK A01 T01460097  RH  072%=      5-min Rain = 0
KAM1 210021Z 20007KT 15/10 A298 RMK A01 T01450096  RH  073%=      5-min Rain = 0
KAM1 210022Z 20007KT 15/10 A298 RMK A01 T01450096  RH  073%=      5-min Rain = 0
KAM1 210023Z 20007KT 14/10 A298 RMK A01 T01440096  RH  073%=      5-min Rain = 0
KAM1 210024Z 20007KT 14/10 A298 RMK A01 T01440095  RH  073%=      5-min Rain = 0
KAM1 210025Z 20007KT 14/10 A298 RMK A01 T01430095  RH  072%=      5-min Rain = 0
KAM1 210026Z 20006KT 14/09 A298 RMK A01 T01430094  RH  072%=      5-min Rain = 0
KAM1 210027Z 20006KT 14/09 A298 RMK A01 T01420093  RH  072%=      5-min Rain = 0
KAM1 210028Z 21006KT 14/09 A298 RMK A01 T01430093  RH  072%=      5-min Rain = 0
KAM1 210029Z 21006KT 14/09 A298 RMK A01 T01430093  RH  072%=      5-min Rain = 0
KAM1 210030Z 21006KT 14/09 A2981 RMK A01 T01430092  RH  071%=      5-min Rain = 0
KAM1 210031Z 21006KT 14/09 A2981 RMK A01 T01430091  RH  071%=      5-min Rain = 0
KAM1 210032Z 20006KT 14/09 A2981 RMK A01 T01430091  RH  071%=      5-min Rain = 0
KAM1 210033Z 20006KT 14/09 A2981 RMK A01 T01430091  RH  071%=      5-min Rain = 0
KAM1 210034Z 20006KT 14/09 A2981 RMK A01 T01420090  RH  071%=      5-min Rain = 0
KAM1 210035Z 21006KT 14/09 A2981 RMK A01 T01420090  RH  071%=      5-min Rain = 0
KAM1 210036Z 21006KT 14/09 A2981 RMK A01 T01420089  RH  071%=      5-min Rain = 0
KAM1 210037Z 21007KT 14/09 A2981 RMK A01 T01430089  RH  070%=      5-min Rain = 0
KAM1 210038Z 21007KT 14/09 A2981 RMK A01 T01430088  RH  070%=      5-min Rain = 0
KAM1 210039Z 21007KT 14/09 A2981 RMK A01 T01430088  RH  069%=      5-min Rain = 0
KAM1 210040Z 21007KT 14/09 A2981 RMK A01 T01430088  RH  069%=      5-min Rain = 0
KAM1 210041Z 21007KT 14/09 A2981 RMK A01 T01440088  RH  069%=      5-min Rain = 0
KAM1 210042Z 21007KT 14/09 A2981 RMK A01 T01440087  RH  069%=      5-min Rain = 0
KAM1 210043Z 21008KT 14/09 A2981 RMK A01 T01430087  RH  069%=      5-min Rain = 0
KAM1 210044Z 21008KT 14/09 A2981 RMK A01 T01430086  RH  069%=      5-min Rain = 0
KAM1 210045Z 21007KT 14/09 A2981 RMK A01 T01430086  RH  068%=      5-min Rain = 0
KAM1 210046Z 21007KT 14/09 A2981 RMK A01 T01430085  RH  068%=      5-min Rain = 0
KAM1 210047Z 21007KT 14/08 A2981 RMK A01 T01430084  RH  068%=      5-min Rain = 0
KAM1 210048Z 20007KT 14/08 A2981 RMK A01 T01420084  RH  068%=      5-min Rain = 0
KAM1 210049Z 21007KT 14/08 A2981 RMK A01 T01420084  RH  068%=      5-min Rain = 0
KAM1 210050Z 20007KT 14/08 A2981 RMK A01 T01410083  RH  068%=      5-min Rain = 0
KAM1 210051Z 20007KT 14/08 A2981 RMK A01 T01400082  RH  068%=      5-min Rain = 0
KAM1 210052Z 20007KT 14/08 A2981 RMK A01 T01400082  RH  068%=      5-min Rain = 0
KAM1 210053Z 20007KT 14/08 A2981 RMK A01 T01400082  RH  068%=      5-min Rain = 0
KAM1 210054Z 20007KT 14/08 A2981 RMK A01 T01390081  RH  068%=      5-min Rain = 0
KAM1 210055Z 20007KT 14/08 A2981 RMK A01 T01390081  RH  068%=      5-min Rain = 0
KAM1 210056Z 20007KT 14/08 A2981 RMK A01 T01380081  RH  068%=      5-min Rain = 0
KAM1 210057Z 21006KT 14/08 A2981 RMK A01 T01380080  RH  068%=      5-min Rain = 0
KAM1 210058Z 21007KT 14/08 A2981 RMK A01 T01380080  RH  068%=      5-min Rain = 0
KAM1 210059Z 20007KT 14/08 A2981 RMK A01 T01370079  RH  068%=      5-min Rain = 0
KAM1 210100Z 20006KT 14/08 A2981 RMK A01 T01360079  RH  068%=      5-min Rain = 0
KAM1 210101Z 21006KT 14/08 A2981 RMK A01 T01360078  RH  068%=      5-min Rain = 0
KAM1 210102Z 20006KT 14/08 A2981 RMK A01 T01350077  RH  068%=      5-min Rain = 0
KAM1 210103Z 21006KT 13/08 A2981 RMK A01 T01340077  RH  068%=      5-min Rain = 0
KAM1 210104Z 20007KT 13/08 A2981 RMK A01 T01340077  RH  068%=      5-min Rain = 0
KAM1 210105Z 20006KT 13/08 A2981 RMK A01 T01340077  RH  068%=      5-min Rain = 0
KAM1 210106Z 20006KT 13/08 A2981 RMK A01 T01340076  RH  068%=      5-min Rain = 0
KAM1 210107Z 20006KT 13/08 A2981 RMK A01 T01330076  RH  068%=      5-min Rain = 0
KAM1 210108Z 20006KT 13/08 A2981 RMK A01 T01320076  RH  068%=      5-min Rain = 0
KAM1 210109Z 20006KT 13/08 A2981 RMK A01 T01320075  RH  069%=      5-min Rain = 0
KAM1 210110Z 20006KT 13/07 A2981 RMK A01 T01300074  RH  069%=      5-min Rain = 0
KAM1 210111Z 20007KT 13/07 A2982 RMK A01 T01290074  RH  069%=      5-min Rain = 0
KAM1 210112Z 20007KT 13/07 A2982 RMK A01 T01280074  RH  069%=      5-min Rain = 0
KAM1 210113Z 20007KT 13/07 A2982 RMK A01 T01270073  RH  070%=      5-min Rain = 0
KAM1 210114Z 20006KT 13/07 A2982 RMK A01 T01260073  RH  070%=      5-min Rain = 0
KAM1 210115Z 21007KT 13/07 A2982 RMK A01 T01260073  RH  070%=      5-min Rain = 0
KAM1 210116Z 21007KT 13/07 A2982 RMK A01 T01260073  RH  070%=      5-min Rain = 0
KAM1 210117Z 21007KT 13/07 A2982 RMK A01 T01270072  RH  069%=      5-min Rain = 0
KAM1 210118Z 21006KT 13/07 A2982 RMK A01 T01280072  RH  069%=      5-min Rain = 0
KAM1 210119Z 21007KT 13/07 A2982 RMK A01 T01290072  RH  068%=      5-min Rain = 0
KAM1 210120Z 21007KT 13/07 A2982 RMK A01 T01290072  RH  068%=      5-min Rain = 0
KAM1 210121Z 21006KT 13/07 A2982 RMK A01 T01290071  RH  068%=      5-min Rain = 0
KAM1 210122Z 21006KT 13/07 A2982 RMK A01 T01290071  RH  068%=      5-min Rain = 0
KAM1 210123Z 21006KT 13/07 A2982 RMK A01 T01290071  RH  068%=      5-min Rain = 0
KAM1 210124Z 21007KT 13/07 A2982 RMK A01 T01290071  RH  068%=      5-min Rain = 0
KAM1 210125Z 21007KT 13/07 A2982 RMK A01 T01290070  RH  068%=      5-min Rain = 0
KAM1 210126Z 21007KT 13/07 A2982 RMK A01 T01280070  RH  068%=      5-min Rain = 0
KAM1 210127Z 21007KT 13/07 A2982 RMK A01 T01280070  RH  068%=      5-min Rain = 0
KAM1 210128Z 21007KT 13/07 A2982 RMK A01 T01280070  RH  067%=      5-min Rain = 0
KAM1 210129Z 21007KT 13/07 A2982 RMK A01 T01280069  RH  067%=      5-min Rain = 0
KAM1 210130Z 21008KT 13/07 A2982 RMK A01 T01290070  RH  067%=      5-min Rain = 0
KAM1 210131Z 21007KT 13/07 A2982 RMK A01 T01280069  RH  067%=      5-min Rain = 0
KAM1 210132Z 21007KT 13/07 A2982 RMK A01 T01280069  RH  067%=      5-min Rain = 0
KAM1 210133Z 21007KT 13/07 A2982 RMK A01 T01280069  RH  067%=      5-min Rain = 0
KAM1 210134Z 21007KT 13/07 A2982 RMK A01 T01270069  RH  068%=      5-min Rain = 0
KAM1 210135Z 21008KT 13/07 A2983 RMK A01 T01270068  RH  068%=      5-min Rain = 0
KAM1 210136Z 21008KT 13/07 A2983 RMK A01 T01270068  RH  068%=      5-min Rain = 0
KAM1 210137Z 21008KT 13/07 A2983 RMK A01 T01270068  RH  067%=      5-min Rain = 0
KAM1 210138Z 21007KT 13/07 A2983 RMK A01 T01270068  RH  067%=      5-min Rain = 0
KAM1 210139Z 21007KT 13/07 A2983 RMK A01 T01280069  RH  067%=      5-min Rain = 0
KAM1 210140Z 22007KT 13/07 A2983 RMK A01 T01270068  RH  067%=      5-min Rain = 0
KAM1 210141Z 22007KT 13/07 A2983 RMK A01 T01270068  RH  068%=      5-min Rain = 0
KAM1 210142Z 21008KT 13/07 A2983 RMK A01 T01270069  RH  068%=      5-min Rain = 0
KAM1 210143Z 22008KT 13/07 A2983 RMK A01 T01270069  RH  068%=      5-min Rain = 0
KAM1 210144Z 21008KT 13/07 A2983 RMK A01 T01270068  RH  067%=      5-min Rain = 0
KAM1 210145Z 21008KT 13/07 A2983 RMK A01 T01280069  RH  067%=      5-min Rain = 0
KAM1 210146Z 22009KT 13/07 A2983 RMK A01 T01280068  RH  067%=      5-min Rain = 0
KAM1 210147Z 22008KT 13/07 A2983 RMK A01 T01280068  RH  067%=      5-min Rain = 0
KAM1 210148Z 22008KT 13/07 A2983 RMK A01 T01280068  RH  067%=      5-min Rain = 0
KAM1 210149Z 21008KT 13/07 A2983 RMK A01 T01280068  RH  067%=      5-min Rain = 0
KAM1 210150Z 22008KT 13/07 A2983 RMK A01 T01290068  RH  067%=      5-min Rain = 0
KAM1 210151Z 22008KT 13/07 A2983 RMK A01 T01290068  RH  066%=      5-min Rain = 0
KAM1 210152Z 21008KT 13/07 A2984 RMK A01 T01290068  RH  066%=      5-min Rain = 0
KAM1 210153Z 22009KT 13/07 A2984 RMK A01 T01290068  RH  066%=      5-min Rain = 0
KAM1 210154Z 21008KT 13/07 A2984 RMK A01 T01280068  RH  067%=      5-min Rain = 0
KAM1 210155Z 21009KT 13/07 A2984 RMK A01 T01280068  RH  067%=      5-min Rain = 0
KAM1 210156Z 21008KT 13/07 A2984 RMK A01 T01280068  RH  067%=      5-min Rain = 0
KAM1 210157Z 21008KT 13/07 A2984 RMK A01 T01280068  RH  067%=      5-min Rain = 0
KAM1 210158Z 21008KT 13/07 A2984 RMK A01 T01280068  RH  067%=      5-min Rain = 0
KAM1 210159Z 21008KT 13/07 A2984 RMK A01 T01270068  RH  067%=      5-min Rain = 0
KAM1 210200Z 22008KT 13/07 A2984 RMK A01 T01270067  RH  067%=      5-min Rain = 0
KAM1 210201Z 22008KT 13/07 A2984 RMK A01 T01260067  RH  067%=      5-min Rain = 0
KAM1 210202Z 22008KT 13/07 A2984 RMK A01 T01250067  RH  068%=      5-min Rain = 0
KAM1 210203Z 22008KT 13/07 A2984 RMK A01 T01250067  RH  068%=      5-min Rain = 0
KAM1 210204Z 22008KT 13/07 A2984 RMK A01 T01250067  RH  068%=      5-min Rain = 0
KAM1 210205Z 22008KT 13/07 A2984 RMK A01 T01260067  RH  068%=      5-min Rain = 0
KAM1 210206Z 22009KT 13/07 A2984 RMK A01 T01250067  RH  067%=      5-min Rain = 0
KAM1 210207Z 22009KT 13/07 A2984 RMK A01 T01250067  RH  068%=      5-min Rain = 0
KAM1 210208Z 22008KT 13/07 A2985 RMK A01 T01250067  RH  068%=      5-min Rain = 0
KAM1 210209Z 22009KT 13/07 A2985 RMK A01 T01250067  RH  068%=      5-min Rain = 0
KAM1 210210Z 22009KT 13/07 A2985 RMK A01 T01250067  RH  068%=      5-min Rain = 0
KAM1 210211Z 22008KT 13/07 A2985 RMK A01 T01260067  RH  067%=      5-min Rain = 0
KAM1 210212Z 23009KT 13/07 A2985 RMK A01 T01260067  RH  067%=      5-min Rain = 0
KAM1 210213Z 22008KT 13/07 A2985 RMK A01 T01260067  RH  067%=      5-min Rain = 0
KAM1 210214Z 22010KT 13/07 A2985 RMK A01 T01260067  RH  067%=      5-min Rain = 0
KAM1 210215Z 22011KT 13/07 A2985 RMK A01 T01270067  RH  067%=      5-min Rain = 0
KAM1 210216Z 22010KT 13/07 A2985 RMK A01 T01280067  RH  066%=      5-min Rain = 0
KAM1 210217Z 23010KT 13/07 A2985 RMK A01 T01280067  RH  066%=      5-min Rain = 0
KAM1 210218Z 23010KT 13/07 A2985 RMK A01 T01290066  RH  066%=      5-min Rain = 0
KAM1 210219Z 23010KT 13/07 A2985 RMK A01 T01290067  RH  066%=      5-min Rain = 0
KAM1 210220Z 23011KT 13/07 A2985 RMK A01 T01300067  RH  066%=      5-min Rain = 0
KAM1 210221Z 23010KT 13/07 A2985 RMK A01 T01310067  RH  065%=      5-min Rain = 0
KAM1 210222Z 23010KT 13/07 A2985 RMK A01 T01320067  RH  065%=      5-min Rain = 0
KAM1 210223Z 23010KT 13/07 A2985 RMK A01 T01320067  RH  065%=      5-min Rain = 0
KAM1 210224Z 23010KT 13/07 A2985 RMK A01 T01330067  RH  064%=      5-min Rain = 0
KAM1 210225Z 23010KT 13/07 A2985 RMK A01 T01340067  RH  064%=      5-min Rain = 0
KAM1 210226Z 23009KT 13/07 A2985 RMK A01 T01340067  RH  064%=      5-min Rain = 0
KAM1 210227Z 23010KT 14/07 A2985 RMK A01 T01350067  RH  063%=      5-min Rain = 0
KAM1 210228Z 23009KT 14/07 A2985 RMK A01 T01350067  RH  063%=      5-min Rain = 0
KAM1 210229Z 23009KT 14/07 A2985 RMK A01 T01350067  RH  063%=      5-min Rain = 0
KAM1 210230Z 23009KT 13/07 A2985 RMK A01 T01340066  RH  063%=      5-min Rain = 0
KAM1 210231Z 23009KT 13/07 A2986 RMK A01 T01340066  RH  063%=      5-min Rain = 0
KAM1 210232Z 22009KT 13/07 A2986 RMK A01 T01340066  RH  063%=      5-min Rain = 0
KAM1 210233Z 22009KT 13/07 A2986 RMK A01 T01340066  RH  063%=      5-min Rain = 0
KAM1 210234Z 22009KT 13/07 A2986 RMK A01 T01340066  RH  063%=      5-min Rain = 0
KAM1 210235Z 22010KT 13/07 A2986 RMK A01 T01340066  RH  063%=      5-min Rain = 0
KAM1 210236Z 22010KT 13/07 A2986 RMK A01 T01340066  RH  064%=      5-min Rain = 0
KAM1 210237Z 22010KT 13/07 A2986 RMK A01 T01340066  RH  064%=      5-min Rain = 0
KAM1 210238Z 21010KT 13/07 A2986 RMK A01 T01330066  RH  064%=      5-min Rain = 0
KAM1 210239Z 21009KT 13/07 A2986 RMK A01 T01330066  RH  064%=      5-min Rain = 0
KAM1 210240Z 21008KT 13/07 A2986 RMK A01 T01320066  RH  064%=      5-min Rain = 0
KAM1 210241Z 21009KT 13/07 A2986 RMK A01 T01300066  RH  065%=      5-min Rain = 0
KAM1 210242Z 21009KT 13/07 A2986 RMK A01 T01290066  RH  065%=      5-min Rain = 0
KAM1 210243Z 21009KT 13/07 A2986 RMK A01 T01280066  RH  066%=      5-min Rain = 0
KAM1 210244Z 22009KT 13/07 A2986 RMK A01 T01280066  RH  066%=      5-min Rain = 0
KAM1 210245Z 22009KT 13/07 A2986 RMK A01 T01270066  RH  066%=      5-min Rain = 0
KAM1 210246Z 22009KT 13/07 A2986 RMK A01 T01270066  RH  066%=      5-min Rain = 0
KAM1 210247Z 22009KT 13/07 A2986 RMK A01 T01270066  RH  066%=      5-min Rain = 0
KAM1 210248Z 23009KT 13/07 A2986 RMK A01 T01280066  RH  066%=      5-min Rain = 0
KAM1 210249Z 23008KT 13/07 A2986 RMK A01 T01280066  RH  066%=      5-min Rain = 0
KAM1 210250Z 23008KT 13/07 A2986 RMK A01 T01280066  RH  066%=      5-min Rain = 0
KAM1 210251Z 23010KT 13/07 A2986 RMK A01 T01290066  RH  065%=      5-min Rain = 0
KAM1 210252Z 23011KT 13/07 A2986 RMK A01 T01310067  RH  065%=      5-min Rain = 0
KAM1 210253Z 24010KT 13/07 A2986 RMK A01 T01330067  RH  064%=      5-min Rain = 0
KAM1 210254Z 23010KT 14/07 A2986 RMK A01 T01350067  RH  063%=      5-min Rain = 0
KAM1 210255Z 24010KT 14/07 A2986 RMK A01 T01360067  RH  063%=      5-min Rain = 0
KAM1 210256Z 24012KT 14/07 A2986 RMK A01 T01370066  RH  062%=      5-min Rain = 0
KAM1 210257Z 24011KT 14/07 A2986 RMK A01 T01370066  RH  062%=      5-min Rain = 0
KAM1 210258Z 24011KT 14/07 A2986 RMK A01 T01380066  RH  062%=      5-min Rain = 0
KAM1 210259Z 24009KT 14/07 A2986 RMK A01 T01380066  RH  062%=      5-min Rain = 0
KAM1 210300Z 24009KT 14/07 A2986 RMK A01 T01370066  RH  062%=      5-min Rain = 0
KAM1 210301Z 24011KT 14/07 A2986 RMK A01 T01360065  RH  062%=      5-min Rain = 0
KAM1 210302Z 24010KT 14/07 A2987 RMK A01 T01360066  RH  062%=      5-min Rain = 0
KAM1 210303Z 24011KT 14/07 A2987 RMK A01 T01360066  RH  062%=      5-min Rain = 0
KAM1 210304Z 24010KT 14/07 A2987 RMK A01 T01360066  RH  063%=      5-min Rain = 0
KAM1 210305Z 24010KT 14/07 A2987 RMK A01 T01350066  RH  063%=      5-min Rain = 0
KAM1 210306Z 24009KT 13/07 A2987 RMK A01 T01340065  RH  063%=      5-min Rain = 0
KAM1 210307Z 23010KT 13/07 A2987 RMK A01 T01340065  RH  063%=      5-min Rain = 0
KAM1 210308Z 24010KT 13/07 A2987 RMK A01 T01330065  RH  063%=      5-min Rain = 0
KAM1 210309Z 23010KT 13/07 A2987 RMK A01 T01330065  RH  063%=      5-min Rain = 0
KAM1 210310Z 24009KT 13/07 A2987 RMK A01 T01320065  RH  064%=      5-min Rain = 0
KAM1 210311Z 23010KT 13/07 A2987 RMK A01 T01310065  RH  064%=      5-min Rain = 0
KAM1 210312Z 23010KT 13/07 A2987 RMK A01 T01310065  RH  064%=      5-min Rain = 0
KAM1 210313Z 23011KT 13/07 A2986 RMK A01 T01310065  RH  064%=      5-min Rain = 0
KAM1 210314Z 23010KT 13/07 A2986 RMK A01 T01310065  RH  064%=      5-min Rain = 0
KAM1 210315Z 23011KT 13/07 A2987 RMK A01 T01300065  RH  065%=      5-min Rain = 0
KAM1 210316Z 24010KT 13/07 A2987 RMK A01 T01310065  RH  064%=      5-min Rain = 0
KAM1 210317Z 23009KT 13/07 A2987 RMK A01 T01310065  RH  064%=      5-min Rain = 0
KAM1 210318Z 23009KT 13/07 A2987 RMK A01 T01300065  RH  065%=      5-min Rain = 0
KAM1 210319Z 23010KT 13/07 A2987 RMK A01 T01300065  RH  065%=      5-min Rain = 0
KAM1 210320Z 23010KT 13/07 A2987 RMK A01 T01300066  RH  065%=      5-min Rain = 0
KAM1 210321Z 23010KT 13/07 A2987 RMK A01 T01300065  RH  065%=      5-min Rain = 0
KAM1 210322Z 23011KT 13/07 A2987 RMK A01 T01300065  RH  065%=      5-min Rain = 0
KAM1 210323Z 23011KT 13/07 A2987 RMK A01 T01300065  RH  065%=      5-min Rain = 0
KAM1 210324Z 23012KT 13/07 A2987 RMK A01 T01300065  RH  065%=      5-min Rain = 0
KAM1 210325Z 23011KT 13/07 A2986 RMK A01 T01300066  RH  065%=      5-min Rain = 0
KAM1 210326Z 23011KT 13/07 A2986 RMK A01 T01300066  RH  065%=      5-min Rain = 0
KAM1 210327Z 23012KT 13/07 A2986 RMK A01 T01310066  RH  065%=      5-min Rain = 0
KAM1 210328Z 23011KT 13/07 A2986 RMK A01 T01310066  RH  065%=      5-min Rain = 0
KAM1 210329Z 22011KT 13/07 A2986 RMK A01 T01310066  RH  064%=      5-min Rain = 0
KAM1 210330Z 23010KT 13/07 A2986 RMK A01 T01310066  RH  064%=      5-min Rain = 0
KAM1 210331Z 23010KT 13/07 A2986 RMK A01 T01310065  RH  065%=      5-min Rain = 0
KAM1 210332Z 23011G16KT 13/07 A2986 RMK A01 T01300065  RH  065%=      5-min Rain = 0
KAM1 210333Z 23010KT 13/07 A2986 RMK A01 T01300065  RH  065%=      5-min Rain = 0
KAM1 210334Z 23010KT 13/07 A2987 RMK A01 T01300065  RH  065%=      5-min Rain = 0
KAM1 210335Z 23011KT 13/07 A2987 RMK A01 T01300065  RH  065%=      5-min Rain = 0
KAM1 210336Z 23010KT 13/07 A2987 RMK A01 T01300065  RH  065%=      5-min Rain = 0
KAM1 210337Z 24010KT 13/07 A2987 RMK A01 T01300065  RH  065%=      5-min Rain = 0
KAM1 210338Z 24010KT 13/07 A2987 RMK A01 T01310066  RH  065%=      5-min Rain = 0
KAM1 210339Z 24010KT 13/07 A2987 RMK A01 T01310065  RH  065%=      5-min Rain = 0
KAM1 210340Z 24009KT 13/07 A2987 RMK A01 T01300065  RH  065%=      5-min Rain = 0
KAM1 210341Z 24009KT 13/07 A2987 RMK A01 T01290065  RH  065%=      5-min Rain = 0
KAM1 210342Z 24009KT 13/07 A2987 RMK A01 T01290065  RH  065%=      5-min Rain = 0
KAM1 210343Z 24009KT 13/07 A2987 RMK A01 T01280065  RH  065%=      5-min Rain = 0
KAM1 210344Z 24008KT 13/07 A2987 RMK A01 T01280065  RH  066%=      5-min Rain = 0
KAM1 210345Z 24009KT 13/06 A2987 RMK A01 T01260064  RH  066%=      5-min Rain = 0
KAM1 210346Z 24009KT 13/07 A2987 RMK A01 T01260065  RH  066%=      5-min Rain = 0
KAM1 210347Z 24008KT 13/07 A2987 RMK A01 T01250065  RH  067%=      5-min Rain = 0
KAM1 210348Z 24009KT 13/07 A2987 RMK A01 T01250065  RH  067%=      5-min Rain = 0
KAM1 210349Z 24009KT 12/07 A2987 RMK A01 T01240065  RH  067%=      5-min Rain = 0
KAM1 210350Z 24010KT 12/07 A2987 RMK A01 T01240065  RH  067%=      5-min Rain = 0
KAM1 210351Z 24009KT 12/07 A2987 RMK A01 T01240065  RH  067%=      5-min Rain = 0
KAM1 210352Z 24008KT 12/07 A2988 RMK A01 T01240065  RH  067%=      5-min Rain = 0
KAM1 210353Z 24008KT 12/07 A2988 RMK A01 T01230065  RH  067%=      5-min Rain = 0
KAM1 210354Z 24008KT 12/06 A2988 RMK A01 T01230064  RH  068%=      5-min Rain = 0
KAM1 210355Z 24008KT 12/06 A2988 RMK A01 T01210064  RH  068%=      5-min Rain = 0
KAM1 210356Z 24009KT 12/06 A2988 RMK A01 T01210064  RH  068%=      5-min Rain = 0
KAM1 210357Z 24009KT 12/06 A2988 RMK A01 T01200064  RH  069%=      5-min Rain = 0
KAM1 210358Z 23009KT 12/07 A2988 RMK A01 T01200065  RH  069%=      5-min Rain = 0
KAM1 210359Z 24009KT 12/07 A2988 RMK A01 T01200065  RH  069%=      5-min Rain = 0
KAM1 210400Z 23008KT 12/07 A2988 RMK A01 T01200065  RH  069%=      5-min Rain = 0
KAM1 210401Z 24009KT 12/07 A2988 RMK A01 T01190065  RH  069%=      5-min Rain = 0
KAM1 210402Z 24009KT 12/07 A2988 RMK A01 T01190065  RH  070%=      5-min Rain = 0
KAM1 210403Z 24009KT 12/07 A2988 RMK A01 T01180065  RH  070%=      5-min Rain = 0
KAM1 210404Z 24008KT 12/07 A2988 RMK A01 T01180065  RH  070%=      5-min Rain = 0
KAM1 210405Z 24009KT 12/07 A2988 RMK A01 T01180065  RH  070%=      5-min Rain = 0
KAM1 210406Z 24008KT 12/07 A2988 RMK A01 T01180065  RH  070%=      5-min Rain = 0
KAM1 210407Z 24008KT 12/07 A2988 RMK A01 T01170065  RH  070%=      5-min Rain = 0
KAM1 210408Z 24008KT 12/07 A2988 RMK A01 T01160065  RH  071%=      5-min Rain = 0
KAM1 210409Z 24008KT 12/07 A2988 RMK A01 T01160065  RH  071%=      5-min Rain = 0
KAM1 210410Z 24009KT 12/07 A2988 RMK A01 T01150065  RH  071%=      5-min Rain = 0
KAM1 210411Z 24008KT 12/07 A2988 RMK A01 T01150065  RH  072%=      5-min Rain = 0
KAM1 210412Z 24009KT 11/07 A2988 RMK A01 T01140065  RH  072%=      5-min Rain = 0
KAM1 210413Z 24009KT 11/07 A2988 RMK A01 T01140065  RH  072%=      5-min Rain = 0
KAM1 210414Z 24009KT 11/07 A2988 RMK A01 T01140065  RH  072%=      5-min Rain = 0
KAM1 210415Z 24009KT 11/07 A2988 RMK A01 T01130065  RH  072%=      5-min Rain = 0
KAM1 210416Z 24009KT 11/07 A2988 RMK A01 T01130065  RH  073%=      5-min Rain = 0
KAM1 210417Z 24009KT 11/07 A2988 RMK A01 T01120065  RH  073%=      5-min Rain = 0
KAM1 210418Z 24010KT 11/07 A2988 RMK A01 T01120065  RH  073%=      5-min Rain = 0
KAM1 210419Z 24009KT 11/07 A2988 RMK A01 T01120066  RH  073%=      5-min Rain = 0
KAM1 210420Z 24009KT 11/07 A2988 RMK A01 T01120066  RH  073%=      5-min Rain = 0
KAM1 210421Z 24009KT 11/07 A2988 RMK A01 T01120066  RH  073%=      5-min Rain = 0
KAM1 210422Z 24009KT 11/07 A2988 RMK A01 T01110066  RH  073%=      5-min Rain = 0
KAM1 210423Z 24009KT 11/07 A2988 RMK A01 T01110065  RH  074%=      5-min Rain = 0
KAM1 210424Z 24008KT 11/07 A2988 RMK A01 T01110066  RH  074%=      5-min Rain = 0
KAM1 210425Z 24008KT 11/07 A2988 RMK A01 T01110066  RH  074%=      5-min Rain = 0
KAM1 210426Z 24008KT 11/07 A2988 RMK A01 T01100065  RH  074%=      5-min Rain = 0
KAM1 210427Z 24008KT 11/07 A2988 RMK A01 T01100065  RH  074%=      5-min Rain = 0
KAM1 210428Z 24008KT 11/07 A2988 RMK A01 T01100065  RH  074%=      5-min Rain = 0
KAM1 210429Z 24008KT 11/07 A2988 RMK A01 T01100065  RH  074%=      5-min Rain = 0
KAM1 210430Z 24008KT 11/06 A2988 RMK A01 T01080064  RH  074%=      5-min Rain = 0
KAM1 210431Z 24008KT 11/06 A2988 RMK A01 T01080064  RH  074%=      5-min Rain = 0
KAM1 210432Z 24007KT 11/06 A2988 RMK A01 T01070064  RH  075%=      5-min Rain = 0
KAM1 210433Z 24008KT 11/06 A2988 RMK A01 T01060064  RH  075%=      5-min Rain = 0
KAM1 210434Z 23008KT 11/06 A2989 RMK A01 T01050064  RH  075%=      5-min Rain = 0
KAM1 210435Z 23008KT 11/06 A2989 RMK A01 T01050064  RH  076%=      5-min Rain = 0
KAM1 210436Z 23008KT 11/06 A2989 RMK A01 T01050064  RH  076%=      5-min Rain = 0
KAM1 210437Z 23008KT 11/06 A2989 RMK A01 T01050064  RH  076%=      5-min Rain = 0
KAM1 210438Z 24008KT 10/06 A2989 RMK A01 T01040064  RH  076%=      5-min Rain = 0
KAM1 210439Z 24008KT 10/06 A2989 RMK A01 T01040064  RH  076%=      5-min Rain = 0
KAM1 210440Z 23008KT 10/06 A2989 RMK A01 T01040064  RH  076%=      5-min Rain = 0
KAM1 210441Z 23008KT 11/07 A2989 RMK A01 T01050065  RH  076%=      5-min Rain = 0
KAM1 210442Z 23008KT 11/06 A2989 RMK A01 T01050064  RH  076%=      5-min Rain = 0
KAM1 210443Z 23008KT 11/07 A2989 RMK A01 T01050065  RH  076%=      5-min Rain = 0
KAM1 210444Z 24008KT 11/07 A2989 RMK A01 T01050065  RH  076%=      5-min Rain = 0
KAM1 210445Z 24008KT 10/06 A2989 RMK A01 T01040064  RH  076%=      5-min Rain = 0
KAM1 210446Z 24007KT 10/06 A2989 RMK A01 T01040064  RH  076%=      5-min Rain = 0
KAM1 210447Z 24006KT 10/06 A2989 RMK A01 T01040064  RH  076%=      5-min Rain = 0
KAM1 210448Z 24007KT 10/06 A2989 RMK A01 T01040064  RH  076%=      5-min Rain = 0
KAM1 210449Z 24007KT 10/06 A2989 RMK A01 T01030064  RH  077%=      5-min Rain = 0
KAM1 210450Z 25007KT 10/06 A2989 RMK A01 T01020063  RH  077%=      5-min Rain = 0
KAM1 210451Z 24007KT 10/06 A2989 RMK A01 T01010063  RH  077%=      5-min Rain = 0
KAM1 210452Z 24006KT 10/06 A2989 RMK A01 T01000062  RH  077%=      5-min Rain = 0
KAM1 210453Z 24007KT 10/06 A2989 RMK A01 T00980062  RH  078%=      5-min Rain = 0
KAM1 210454Z 24006KT 10/06 A2989 RMK A01 T00980062  RH  078%=      5-min Rain = 0
KAM1 210455Z 24006KT 10/06 A2989 RMK A01 T00980063  RH  079%=      5-min Rain = 0
KAM1 210456Z 24006KT 10/06 A2989 RMK A01 T00980062  RH  079%=      5-min Rain = 0
KAM1 210457Z 23007KT 10/06 A2989 RMK A01 T00970062  RH  079%=      5-min Rain = 0
KAM1 210458Z 23007KT 10/06 A2989 RMK A01 T00960061  RH  079%=      5-min Rain = 0
KAM1 210459Z 23008KT 10/06 A2989 RMK A01 T00950061  RH  079%=      5-min Rain = 0
KAM1 210500Z 23008KT 10/06 A299 RMK A01 T00950062  RH  080%=      5-min Rain = 0
KAM1 210501Z 23009KT 10/06 A299 RMK A01 T00950063  RH  080%=      5-min Rain = 0
KAM1 210502Z 23009KT 10/06 A299 RMK A01 T00950063  RH  081%=      5-min Rain = 0
KAM1 210503Z 23009KT 10/06 A299 RMK A01 T00960064  RH  080%=      5-min Rain = 0
KAM1 210504Z 23008KT 10/06 A299 RMK A01 T00970064  RH  080%=      5-min Rain = 0
KAM1 210505Z 23008KT 10/06 A299 RMK A01 T00970064  RH  080%=      5-min Rain = 0
KAM1 210506Z 24009KT 10/07 A299 RMK A01 T00970065  RH  080%=      5-min Rain = 0
KAM1 210507Z 24008KT 10/07 A299 RMK A01 T00980065  RH  080%=      5-min Rain = 0
KAM1 210508Z 24008KT 10/07 A299 RMK A01 T00980065  RH  080%=      5-min Rain = 0
KAM1 210509Z 24007KT 10/07 A299 RMK A01 T00980065  RH  080%=      5-min Rain = 0
KAM1 210510Z 24007KT 10/07 A299 RMK A01 T00980065  RH  080%=      5-min Rain = 0
KAM1 210511Z 24007KT 10/06 A299 RMK A01 T00980064  RH  080%=      5-min Rain = 0
KAM1 210512Z 24007KT 10/06 A299 RMK A01 T00970064  RH  080%=      5-min Rain = 0
KAM1 210513Z 24007KT 10/06 A299 RMK A01 T00960064  RH  080%=      5-min Rain = 0
KAM1 210514Z 23007KT 10/06 A299 RMK A01 T00960063  RH  080%=      5-min Rain = 0
KAM1 210515Z 23006KT 10/06 A299 RMK A01 T00950062  RH  080%=      5-min Rain = 0
KAM1 210516Z 23006KT 09/06 A299 RMK A01 T00930062  RH  081%=      5-min Rain = 0
KAM1 210517Z 23006KT 09/06 A299 RMK A01 T00920061  RH  081%=      5-min Rain = 0
KAM1 210518Z 23006KT 09/06 A299 RMK A01 T00910061  RH  082%=      5-min Rain = 0
KAM1 210519Z 23007KT 09/06 A299 RMK A01 T00900060  RH  082%=      5-min Rain = 0
KAM1 210520Z 23007KT 09/06 A299 RMK A01 T00890060  RH  083%=      5-min Rain = 0
KAM1 210521Z 23007KT 09/06 A299 RMK A01 T00880060  RH  083%=      5-min Rain = 0
KAM1 210522Z 23007KT 09/06 A299 RMK A01 T00870059  RH  083%=      5-min Rain = 0
KAM1 210523Z 23007KT 09/06 A299 RMK A01 T00860059  RH  084%=      5-min Rain = 0
KAM1 210524Z 23007KT 09/06 A299 RMK A01 T00850060  RH  084%=      5-min Rain = 0
KAM1 210525Z 23007KT 08/06 A2991 RMK A01 T00840059  RH  085%=      5-min Rain = 0
KAM1 210526Z 23008KT 08/06 A2991 RMK A01 T00830061  RH  086%=      5-min Rain = 0
KAM1 210527Z 23008KT 08/06 A2991 RMK A01 T00830061  RH  086%=      5-min Rain = 0
KAM1 210528Z 23008KT 08/06 A2991 RMK A01 T00830062  RH  086%=      5-min Rain = 0
KAM1 210529Z 23008KT 08/06 A2991 RMK A01 T00840062  RH  086%=      5-min Rain = 0
KAM1 210530Z 23007KT 09/06 A2991 RMK A01 T00850063  RH  086%=      5-min Rain = 0
KAM1 210531Z 23008KT 09/06 A2991 RMK A01 T00850064  RH  086%=      5-min Rain = 0
KAM1 210532Z 23008KT 09/06 A2991 RMK A01 T00860063  RH  086%=      5-min Rain = 0
KAM1 210533Z 23008KT 09/06 A2991 RMK A01 T00860064  RH  086%=      5-min Rain = 0
KAM1 210534Z 24008KT 09/06 A2991 RMK A01 T00860064  RH  086%=      5-min Rain = 0
KAM1 210535Z 23008KT 09/06 A2992 RMK A01 T00860064  RH  086%=      5-min Rain = 0
KAM1 210536Z 23008KT 09/06 A2992 RMK A01 T00860064  RH  086%=      5-min Rain = 0
KAM1 210537Z 24007KT 09/06 A2992 RMK A01 T00860064  RH  086%=      5-min Rain = 0
KAM1 210538Z 24007KT 09/06 A2992 RMK A01 T00870064  RH  086%=      5-min Rain = 0
KAM1 210539Z 24007KT 09/06 A2992 RMK A01 T00870064  RH  086%=      5-min Rain = 0
KAM1 210540Z 24007KT 09/06 A2992 RMK A01 T00870064  RH  086%=      5-min Rain = 0
KAM1 210541Z 25006KT 09/06 A2992 RMK A01 T00880064  RH  085%=      5-min Rain = 0
KAM1 210542Z 25007KT 09/06 A2992 RMK A01 T00880064  RH  085%=      5-min Rain = 0
KAM1 210543Z 25006KT 09/06 A2992 RMK A01 T00870063  RH  085%=      5-min Rain = 0
KAM1 210544Z 25007KT 09/06 A2992 RMK A01 T00870063  RH  085%=      5-min Rain = 0
KAM1 210545Z 25007KT 09/06 A2992 RMK A01 T00860063  RH  086%=      5-min Rain = 0
KAM1 210546Z 25007KT 09/06 A2992 RMK A01 T00850063  RH  086%=      5-min Rain = 0
KAM1 210547Z 25007KT 09/06 A2992 RMK A01 T00850062  RH  086%=      5-min Rain = 0
KAM1 210548Z 25007KT 08/06 A2992 RMK A01 T00840062  RH  086%=      5-min Rain = 0
KAM1 210549Z 24008KT 08/06 A2992 RMK A01 T00830063  RH  087%=      5-min Rain = 0
KAM1 210550Z 25007KT 08/06 A2992 RMK A01 T00840064  RH  087%=      5-min Rain = 0
KAM1 210551Z 25007KT 08/06 A2992 RMK A01 T00840064  RH  087%=      5-min Rain = 0
KAM1 210552Z 24008KT 09/07 A2992 RMK A01 T00850065  RH  087%=      5-min Rain = 0
KAM1 210553Z 25008KT 09/07 A2992 RMK A01 T00860066  RH  087%=      5-min Rain = 0
KAM1 210554Z 24007KT 09/07 A2992 RMK A01 T00880067  RH  086%=      5-min Rain = 0
KAM1 210555Z 24007KT 09/07 A2992 RMK A01 T00890066  RH  086%=      5-min Rain = 0
KAM1 210556Z 24007KT 09/07 A2992 RMK A01 T00890066  RH  085%=      5-min Rain = 0
KAM1 210557Z 24008KT 09/07 A2992 RMK A01 T00900066  RH  085%=      5-min Rain = 0
KAM1 210558Z 24007KT 09/07 A2992 RMK A01 T00910066  RH  084%=      5-min Rain = 0
KAM1 210559Z 24007KT 09/07 A2992 RMK A01 T00910065  RH  084%=      5-min Rain = 0

Page generated in 0.0817 seconds.